Wetterdaten: Freitag, 09.09.2022
Datum Zeit Temp. Aussen Temp. o. S. Temp +5cm Feuchte Auss Luftdruck Regen Sonnenschein Regendauer Solar Windben Empfang
09.09.2022 00:00 16,1 C 15,6 C 11,1 C 95 % 1009,3 hPa 0,0 l/m 0 min 0 min 0 W/m 0,0 km/h (0 Bft) 95,65 %
09.09.2022 00:02 16,1 C 15,6 C 11,7 C 95 % 1009,4 hPa 0,0 l/m 0 min 0 min 0 W/m 3,2 km/h (1 Bft) 96,88 %
09.09.2022 00:04 16,2 C 15,6 C 11,7 C 95 % 1009,3 hPa 0,0 l/m 0 min 0 min 0 W/m 0,0 km/h (0 Bft) 93,62 %
09.09.2022 00:08 16,1 C 15,6 C 11,1 C 95 % 1009,3 hPa 0,0 l/m 0 min 0 min 0 W/m 12,9 km/h (3 Bft) 96,00 %
09.09.2022 00:10 15,9 C 15,6 C 10,6 C 95 % 1009,4 hPa 0,0 l/m 0 min 0 min 0 W/m 6,4 km/h (2 Bft) 95,74 %
09.09.2022 00:12 15,9 C 15,6 C 10,6 C 94 % 1009,7 hPa 0,4 l/m 0 min 2 min 0 W/m 16,1 km/h (3 Bft) 95,74 %
09.09.2022 00:14 15,9 C 14,4 C 11,1 C 94 % 1009,8 hPa 1,6 l/m 0 min 2 min 0 W/m 12,9 km/h (3 Bft) 95,74 %
09.09.2022 00:16 15,8 C 13,9 C 10,6 C 94 % 1009,8 hPa 1,6 l/m 0 min 2 min 0 W/m 12,9 km/h (3 Bft) 95,74 %
09.09.2022 00:18 15,7 C 13,9 C 10,6 C 94 % 1009,8 hPa 0,4 l/m 0 min 2 min 0 W/m 12,9 km/h (3 Bft) 93,62 %
09.09.2022 00:20 15,6 C 13,9 C 10,6 C 94 % 1009,8 hPa 0,4 l/m 0 min 2 min 0 W/m 12,9 km/h (3 Bft) 97,83 %
09.09.2022 00:22 15,4 C 13,9 C 10,6 C 94 % 1009,7 hPa 0,4 l/m 0 min 2 min 0 W/m 6,4 km/h (2 Bft) 97,87 %
09.09.2022 00:24 15,4 C 13,9 C 10,6 C 94 % 1009,5 hPa 0,2 l/m 0 min 2 min 0 W/m 6,4 km/h (2 Bft) 97,87 %
09.09.2022 00:26 15,3 C 13,9 C 10,6 C 94 % 1009,4 hPa 0,0 l/m 0 min 2 min 0 W/m 3,2 km/h (1 Bft) 97,87 %
09.09.2022 00:28 15,3 C 13,9 C 10,6 C 94 % 1009,4 hPa 0,0 l/m 0 min 2 min 0 W/m 3,2 km/h (1 Bft) 97,87 %
09.09.2022 00:30 15,3 C 13,9 C 10,6 C 94 % 1009,3 hPa 0,0 l/m 0 min 2 min 0 W/m 0,0 km/h (0 Bft) 97,83 %
09.09.2022 00:32 15,3 C 13,9 C 10,6 C 94 % 1009,3 hPa 0,2 l/m 0 min 2 min 0 W/m 0,0 km/h (0 Bft) 97,87 %
09.09.2022 00:34 15,3 C 13,9 C 10,6 C 94 % 1009,3 hPa 0,0 l/m 0 min 2 min 0 W/m 0,0 km/h (0 Bft) 100,00 %
09.09.2022 00:36 15,2 C 13,9 C 10,6 C 94 % 1009,2 hPa 0,0 l/m 0 min 2 min 0 W/m 0,0 km/h (0 Bft) 97,87 %
09.09.2022 00:38 15,2 C 13,9 C 10,6 C 94 % 1009,1 hPa 0,0 l/m 0 min 2 min 0 W/m 0,0 km/h (0 Bft) 100,00 %
09.09.2022 00:40 15,2 C 13,9 C 10,6 C 95 % 1009,2 hPa 0,0 l/m 0 min 2 min 0 W/m 0,0 km/h (0 Bft) 100,00 %
09.09.2022 00:42 15,2 C 13,9 C 10,6 C 95 % 1009,1 hPa 0,2 l/m 0 min 2 min 0 W/m 0,0 km/h (0 Bft) 100,00 %
09.09.2022 00:44 15,2 C 13,9 C 10,6 C 95 % 1009,1 hPa 0,0 l/m 0 min 2 min 0 W/m 0,0 km/h (0 Bft) 97,87 %
09.09.2022 00:46 15,2 C 13,9 C 10,6 C 95 % 1009,1 hPa 0,0 l/m 0 min 2 min 0 W/m 0,0 km/h (0 Bft) 100,00 %
09.09.2022 00:48 15,2 C 13,9 C 10,6 C 95 % 1009,1 hPa 0,0 l/m 0 min 0 min 0 W/m 0,0 km/h (0 Bft) 97,87 %
09.09.2022 00:50 15,2 C 13,9 C 10,6 C 95 % 1009,1 hPa 0,0 l/m 0 min 0 min 0 W/m 0,0 km/h (0 Bft) 100,00 %
09.09.2022 00:52 15,2 C 13,9 C 10,6 C 95 % 1009,1 hPa 0,0 l/m 0 min 0 min 0 W/m 0,0 km/h (0 Bft) 97,87 %
09.09.2022 00:54 15,2 C 13,9 C 10,6 C 95 % 1009,1 hPa 0,0 l/m 0 min 0 min 0 W/m 0,0 km/h (0 Bft) 97,83 %
09.09.2022 00:56 15,2 C 13,9 C 10,6 C 95 % 1009,1 hPa 0,0 l/m 0 min 0 min 0 W/m 0,0 km/h (0 Bft) 100,00 %
09.09.2022 00:58 15,2 C 13,9 C 10,6 C 95 % 1009,1 hPa 0,0 l/m 0 min 0 min 0 W/m 0,0 km/h (0 Bft) 100,00 %
09.09.2022 01:00 15,2 C 13,9 C 10,6 C 95 % 1009,0 hPa 0,0 l/m 0 min 0 min 0 W/m 0,0 km/h (0 Bft) 100,00 %
09.09.2022 01:02 15,1 C 13,9 C 10,6 C 95 % 1009,0 hPa 0,0 l/m 0 min 2 min 0 W/m 0,0 km/h (0 Bft) 100,00 %
09.09.2022 01:04 15,1 C 13,9 C 10,6 C 95 % 1009,0 hPa 0,0 l/m 0 min 2 min 0 W/m 0,0 km/h (0 Bft) 100,00 %
09.09.2022 01:06 15,1 C 13,9 C 10,6 C 95 % 1008,9 hPa 0,0 l/m 0 min 2 min 0 W/m 0,0 km/h (0 Bft) 100,00 %
09.09.2022 01:08 15,1 C 13,9 C 10,6 C 95 % 1008,9 hPa 0,0 l/m 0 min 0 min 0 W/m 0,0 km/h (0 Bft) 100,00 %
09.09.2022 01:10 15,1 C 13,9 C 10,6 C 95 % 1008,9 hPa 0,0 l/m 0 min 0 min 0 W/m 0,0 km/h (0 Bft) 100,00 %
09.09.2022 01:12 15,0 C 13,3 C 10,6 C 95 % 1008,9 hPa 0,0 l/m 0 min 0 min 0 W/m 0,0 km/h (0 Bft) 100,00 %
09.09.2022 01:14 15,0 C 13,3 C 10,6 C 95 % 1008,9 hPa 0,0 l/m 0 min 0 min 0 W/m 0,0 km/h (0 Bft) 100,00 %
09.09.2022 01:16 14,9 C 13,9 C 10,6 C 95 % 1008,9 hPa 0,0 l/m 0 min 0 min 0 W/m 0,0 km/h (0 Bft) 100,00 %
09.09.2022 01:18 14,9 C 13,3 C 10,6 C 95 % 1008,9 hPa 0,0 l/m 0 min 0 min 0 W/m 0,0 km/h (0 Bft) 100,00 %
09.09.2022 01:20 14,9 C 13,3 C 10,6 C 95 % 1008,8 hPa 0,0 l/m 0 min 0 min 0 W/m 0,0 km/h (0 Bft) 100,00 %
09.09.2022 01:22 14,9 C 13,3 C 10,6 C 95 % 1008,7 hPa 0,0 l/m 0 min 2 min 0 W/m 0,0 km/h (0 Bft) 100,00 %
09.09.2022 01:24 14,8 C 13,3 C 10,6 C 95 % 1008,7 hPa 0,0 l/m 0 min 0 min 0 W/m 0,0 km/h (0 Bft) 97,87 %
09.09.2022 01:26 14,8 C 13,3 C 10,6 C 95 % 1008,8 hPa 0,0 l/m 0 min 0 min 0 W/m 0,0 km/h (0 Bft) 93,62 %
09.09.2022 01:28 14,8 C 13,3 C 10,6 C 95 % 1008,8 hPa 0,0 l/m 0 min 0 min 0 W/m 0,0 km/h (0 Bft) 97,87 %
09.09.2022 01:30 14,8 C 13,3 C 10,6 C 96 % 1008,8 hPa 0,0 l/m 0 min 0 min 0 W/m 0,0 km/h (0 Bft) 95,65 %
09.09.2022 01:32 14,8 C 13,3 C 10,6 C 96 % 1008,8 hPa 0,0 l/m 0 min 0 min 0 W/m 0,0 km/h (0 Bft) 100,00 %
09.09.2022 01:34 14,8 C 13,3 C 10,6 C 96 % 1008,7 hPa 0,0 l/m 0 min 0 min 0 W/m 0,0 km/h (0 Bft) 97,87 %
09.09.2022 01:36 14,8 C 13,9 C 10,6 C 96 % 1008,7 hPa 0,0 l/m 0 min 0 min 0 W/m 0,0 km/h (0 Bft) 100,00 %
09.09.2022 01:38 14,8 C 13,9 C 10,6 C 96 % 1008,8 hPa 0,0 l/m 0 min 0 min 0 W/m 0,0 km/h (0 Bft) 95,74 %
09.09.2022 01:40 14,8 C 13,9 C 10,6 C 96 % 1008,8 hPa 0,0 l/m 0 min 0 min 0 W/m 0,0 km/h (0 Bft) 95,74 %
09.09.2022 01:42 14,8 C 13,9 C 10,6 C 96 % 1008,8 hPa 0,0 l/m 0 min 0 min 0 W/m 0,0 km/h (0 Bft) 95,65 %
09.09.2022 01:44 14,8 C 13,3 C 10,6 C 96 % 1008,8 hPa 0,0 l/m 0 min 0 min 0 W/m 0,0 km/h (0 Bft) 97,87 %
09.09.2022 01:46 14,8 C 13,9 C 10,6 C 96 % 1008,8 hPa 0,0 l/m 0 min 0 min 0 W/m 0,0 km/h (0 Bft) 97,87 %
09.09.2022 01:48 14,8 C 13,9 C 10,6 C 96 % 1008,7 hPa 0,0 l/m 0 min 0 min 0 W/m 0,0 km/h (0 Bft) 95,74 %
09.09.2022 01:50 14,8 C 13,9 C 10,6 C 96 % 1008,7 hPa 0,0 l/m 0 min 0 min 0 W/m 0,0 km/h (0 Bft) 93,62 %
09.09.2022 01:52 14,8 C 13,9 C 10,6 C 96 % 1008,8 hPa 0,0 l/m 0 min 0 min 0 W/m 0,0 km/h (0 Bft) 95,74 %
09.09.2022 01:54 14,8 C 13,3 C 10,6 C 96 % 1008,8 hPa 0,0 l/m 0 min 0 min 0 W/m 0,0 km/h (0 Bft) 93,48 %
09.09.2022 01:56 14,8 C 13,3 C 10,6 C 96 % 1008,9 hPa 0,0 l/m 0 min 0 min 0 W/m 0,0 km/h (0 Bft) 95,74 %
09.09.2022 01:58 14,7 C 13,3 C 10,6 C 96 % 1008,9 hPa 0,0 l/m 0 min 0 min 0 W/m 0,0 km/h (0 Bft) 95,74 %
09.09.2022 02:00 14,8 C 13,3 C 10,6 C 96 % 1008,8 hPa 0,0 l/m 0 min 0 min 0 W/m 0,0 km/h (0 Bft) 91,49 %
09.09.2022 02:02 14,7 C 13,3 C 10,6 C 96 % 1008,8 hPa 0,0 l/m 0 min 0 min 0 W/m 0,0 km/h (0 Bft) 93,62 %
09.09.2022 02:04 14,7 C 13,3 C 10,6 C 96 % 1008,8 hPa 0,0 l/m 0 min 0 min 0 W/m 0,0 km/h (0 Bft) 95,74 %
09.09.2022 02:06 14,7 C 13,3 C 10,6 C 96 % 1008,8 hPa 0,0 l/m 0 min 0 min 0 W/m 0,0 km/h (0 Bft) 95,65 %
09.09.2022 02:08 14,7 C 13,3 C 10,6 C 96 % 1008,8 hPa 0,0 l/m 0 min 0 min 0 W/m 0,0 km/h (0 Bft) 95,74 %
09.09.2022 02:10 14,7 C 13,3 C 10,6 C 96 % 1008,8 hPa 0,0 l/m 0 min 0 min 0 W/m 0,0 km/h (0 Bft) 95,74 %
09.09.2022 02:12 14,7 C 13,3 C 10,6 C 96 % 1008,8 hPa 0,0 l/m 0 min 0 min 0 W/m 0,0 km/h (0 Bft) 95,74 %
09.09.2022 02:14 14,7 C 13,9 C 10,6 C 96 % 1008,7 hPa 0,0 l/m 0 min 0 min 0 W/m 0,0 km/h (0 Bft) 97,87 %
09.09.2022 02:16 14,7 C 13,9 C 10,6 C 96 % 1008,7 hPa 0,0 l/m 0 min 0 min 0 W/m 0,0 km/h (0 Bft) 97,87 %
09.09.2022 02:18 14,7 C 13,9 C 10,6 C 96 % 1008,8 hPa 0,0 l/m 0 min 0 min 0 W/m 0,0 km/h (0 Bft) 95,65 %
09.09.2022 02:20 14,7 C 13,9 C 10,6 C 96 % 1008,8 hPa 0,0 l/m 0 min 0 min 0 W/m 0,0 km/h (0 Bft) 97,87 %
09.09.2022 02:22 14,7 C 13,9 C 10,6 C 96 % 1008,8 hPa 0,0 l/m 0 min 0 min 0 W/m 0,0 km/h (0 Bft) 97,87 %
09.09.2022 02:24 14,7 C 13,9 C 10,6 C 96 % 1008,8 hPa 0,0 l/m 0 min 0 min 0 W/m 0,0 km/h (0 Bft) 100,00 %
09.09.2022 02:26 14,7 C 13,9 C 10,6 C 96 % 1008,8 hPa 0,0 l/m 0 min 0 min 0 W/m 0,0 km/h (0 Bft) 100,00 %
09.09.2022 02:28 14,7 C 13,9 C 10,6 C 96 % 1008,8 hPa 0,0 l/m 0 min 0 min 0 W/m 0,0 km/h (0 Bft) 100,00 %
09.09.2022 02:30 14,7 C 13,9 C 10,6 C 96 % 1008,8 hPa 0,0 l/m 0 min 0 min 0 W/m 0,0 km/h (0 Bft) 100,00 %
09.09.2022 02:32 14,7 C 13,9 C 10,6 C 96 % 1008,8 hPa 0,0 l/m 0 min 0 min 0 W/m 0,0 km/h (0 Bft) 97,87 %
09.09.2022 02:34 14,7 C 13,9 C 10,6 C 96 % 1008,8 hPa 0,0 l/m 0 min 0 min 0 W/m 0,0 km/h (0 Bft) 100,00 %
09.09.2022 02:36 14,7 C 13,9 C 10,6 C 96 % 1008,9 hPa 0,0 l/m 0 min 0 min 0 W/m 0,0 km/h (0 Bft) 100,00 %
09.09.2022 02:38 14,7 C 13,9 C 10,6 C 96 % 1008,9 hPa 0,0 l/m 0 min 0 min 0 W/m 0,0 km/h (0 Bft) 100,00 %
09.09.2022 02:40 14,7 C 13,9 C 10,6 C 97 % 1008,9 hPa 0,0 l/m 0 min 0 min 0 W/m 0,0 km/h (0 Bft) 97,87 %
09.09.2022 02:42 14,7 C 13,9 C 10,6 C 97 % 1008,8 hPa 0,0 l/m 0 min 0 min 0 W/m 0,0 km/h (0 Bft) 100,00 %
09.09.2022 02:44 14,7 C 13,9 C 10,6 C 97 % 1008,8 hPa 0,0 l/m 0 min 0 min 0 W/m 0,0 km/h (0 Bft) 95,74 %
09.09.2022 02:46 14,7 C 13,9 C 10,6 C 97 % 1008,7 hPa 0,0 l/m 0 min 0 min 0 W/m 6,4 km/h (2 Bft) 97,87 %
09.09.2022 02:48 14,7 C 13,9 C 10,6 C 97 % 1008,8 hPa 0,0 l/m 0 min 0 min 0 W/m 6,4 km/h (2 Bft) 97,87 %
09.09.2022 02:50 14,6 C 13,3 C 10,6 C 97 % 1008,7 hPa 0,0 l/m 0 min 0 min 0 W/m 3,2 km/h (1 Bft) 97,87 %
09.09.2022 02:52 14,7 C 13,3 C 10,6 C 97 % 1008,7 hPa 0,0 l/m 0 min 0 min 0 W/m 3,2 km/h (1 Bft) 97,87 %
09.09.2022 02:54 14,6 C 13,3 C 10,6 C 97 % 1008,7 hPa 0,0 l/m 0 min 0 min 0 W/m 0,0 km/h (0 Bft) 95,65 %
09.09.2022 02:56 14,6 C 13,3 C 10,6 C 97 % 1008,7 hPa 0,0 l/m 0 min 0 min 0 W/m 0,0 km/h (0 Bft) 97,87 %
09.09.2022 02:58 14,6 C 13,3 C 10,6 C 97 % 1008,7 hPa 0,0 l/m 0 min 0 min 0 W/m 0,0 km/h (0 Bft) 95,74 %
09.09.2022 03:00 14,6 C 13,3 C 10,6 C 97 % 1008,7 hPa 0,0 l/m 0 min 0 min 0 W/m 6,4 km/h (2 Bft) 95,74 %
09.09.2022 03:02 14,6 C 13,3 C 10,6 C 97 % 1008,7 hPa 0,0 l/m 0 min 0 min 0 W/m 3,2 km/h (1 Bft) 97,87 %
09.09.2022 03:04 14,5 C 13,3 C 10,6 C 97 % 1008,7 hPa 0,0 l/m 0 min 0 min 0 W/m 3,2 km/h (1 Bft) 97,83 %
09.09.2022 03:06 14,5 C 13,3 C 10,6 C 97 % 1008,7 hPa 0,0 l/m 0 min 0 min 0 W/m 6,4 km/h (2 Bft) 97,87 %
09.09.2022 03:08 14,5 C 13,3 C 10,6 C 97 % 1008,8 hPa 0,0 l/m 0 min 0 min 0 W/m 0,0 km/h (0 Bft) 97,87 %
09.09.2022 03:10 14,5 C 13,3 C 10,6 C 97 % 1008,8 hPa 0,0 l/m 0 min 0 min 0 W/m 3,2 km/h (1 Bft) 95,74 %
09.09.2022 03:12 14,4 C 13,3 C 10,6 C 97 % 1008,7 hPa 0,0 l/m 0 min 0 min 0 W/m 3,2 km/h (1 Bft) 95,74 %
09.09.2022 03:14 14,4 C 13,3 C 10,6 C 97 % 1008,7 hPa 0,0 l/m 0 min 0 min 0 W/m 3,2 km/h (1 Bft) 97,87 %
09.09.2022 03:16 14,4 C 13,3 C 10,6 C 97 % 1008,7 hPa 0,0 l/m 0 min 0 min 0 W/m 3,2 km/h (1 Bft) 95,65 %
09.09.2022 03:18 14,4 C 13,3 C 10,6 C 97 % 1008,6 hPa 0,0 l/m 0 min 0 min 0 W/m 3,2 km/h (1 Bft) 97,87 %
09.09.2022 03:20 14,4 C 13,3 C 10,0 C 97 % 1008,6 hPa 0,0 l/m 0 min 0 min 0 W/m 3,2 km/h (1 Bft) 97,87 %
09.09.2022 03:22 14,4 C 13,3 C 10,0 C 97 % 1008,6 hPa 0,0 l/m 0 min 0 min 0 W/m 3,2 km/h (1 Bft) 93,62 %
09.09.2022 03:24 14,3 C 13,3 C 10,6 C 97 % 1008,6 hPa 0,0 l/m 0 min 0 min 0 W/m 3,2 km/h (1 Bft) 97,87 %
09.09.2022 03:26 14,3 C 13,3 C 10,6 C 97 % 1008,7 hPa 0,0 l/m 0 min 0 min 0 W/m 3,2 km/h (1 Bft) 97,87 %
09.09.2022 03:28 14,3 C 13,3 C 10,6 C 97 % 1008,6 hPa 0,0 l/m 0 min 0 min 0 W/m 3,2 km/h (1 Bft) 97,83 %
09.09.2022 03:30 14,3 C 13,3 C 10,6 C 97 % 1008,7 hPa 0,0 l/m 0 min 0 min 0 W/m 3,2 km/h (1 Bft) 95,74 %
09.09.2022 03:32 14,3 C 13,3 C 10,6 C 97 % 1008,6 hPa 0,0 l/m 0 min 0 min 0 W/m 6,4 km/h (2 Bft) 95,74 %
09.09.2022 03:34 14,3 C 13,3 C 10,6 C 97 % 1008,6 hPa 0,0 l/m 0 min 0 min 0 W/m 0,0 km/h (0 Bft) 95,74 %
09.09.2022 03:36 14,3 C 13,3 C 10,6 C 97 % 1008,6 hPa 0,0 l/m 0 min 0 min 0 W/m 0,0 km/h (0 Bft) 95,74 %
09.09.2022 03:38 14,3 C 13,3 C 10,6 C 97 % 1008,6 hPa 0,0 l/m 0 min 0 min 0 W/m 0,0 km/h (0 Bft) 97,87 %
09.09.2022 03:40 14,3 C 13,3 C 10,6 C 97 % 1008,6 hPa 0,0 l/m 0 min 0 min 0 W/m 3,2 km/h (1 Bft) 97,83 %
09.09.2022 03:42 14,3 C 13,3 C 10,6 C 97 % 1008,6 hPa 0,0 l/m 0 min 0 min 0 W/m 3,2 km/h (1 Bft) 95,74 %
09.09.2022 03:44 14,3 C 13,3 C 10,0 C 97 % 1008,6 hPa 0,0 l/m 0 min 0 min 0 W/m 6,4 km/h (2 Bft) 95,74 %
09.09.2022 03:46 14,3 C 13,3 C 10,6 C 97 % 1008,6 hPa 0,0 l/m 0 min 0 min 0 W/m 3,2 km/h (1 Bft) 97,87 %
09.09.2022 03:48 14,3 C 13,3 C 10,6 C 97 % 1008,6 hPa 0,0 l/m 0 min 0 min 0 W/m 3,2 km/h (1 Bft) 97,87 %
09.09.2022 03:50 14,3 C 13,3 C 10,6 C 97 % 1008,6 hPa 0,0 l/m 0 min 0 min 0 W/m 3,2 km/h (1 Bft) 95,74 %
09.09.2022 03:52 14,3 C 13,3 C 10,6 C 97 % 1008,6 hPa 0,0 l/m 0 min 0 min 0 W/m 3,2 km/h (1 Bft) 95,65 %
09.09.2022 03:54 14,3 C 13,3 C 10,6 C 97 % 1008,6 hPa 0,0 l/m 0 min 0 min 0 W/m 3,2 km/h (1 Bft) 97,87 %
09.09.2022 03:56 14,3 C 13,3 C 10,0 C 97 % 1008,6 hPa 0,0 l/m 0 min 0 min 0 W/m 6,4 km/h (2 Bft) 97,87 %
09.09.2022 03:58 14,3 C 13,3 C 10,0 C 97 % 1008,6 hPa 0,0 l/m 0 min 0 min 0 W/m 3,2 km/h (1 Bft) 95,74 %
09.09.2022 04:00 14,3 C 13,3 C 10,6 C 97 % 1008,6 hPa 0,0 l/m 0 min 0 min 0 W/m 0,0 km/h (0 Bft) 97,87 %
09.09.2022 04:05 14,3 C 13,3 C 10,6 C 97 % 1008,5 hPa 0,0 l/m 0 min 0 min 0 W/m 6,4 km/h (2 Bft) 100,00 %
09.09.2022 04:06 14,3 C 13,3 C 10,6 C 97 % 1008,5 hPa 0,0 l/m 0 min 0 min 0 W/m 3,2 km/h (1 Bft) 100,00 %
09.09.2022 04:08 14,3 C 13,3 C 10,6 C 97 % 1008,5 hPa 0,0 l/m 0 min 0 min 0 W/m 3,2 km/h (1 Bft) 100,00 %
09.09.2022 04:10 14,3 C 13,3 C 10,6 C 97 % 1008,5 hPa 0,0 l/m 0 min 0 min 0 W/m 6,4 km/h (2 Bft) 95,74 %
09.09.2022 04:12 14,3 C 13,3 C 10,6 C 97 % 1008,5 hPa 0,0 l/m 0 min 0 min 0 W/m 3,2 km/h (1 Bft) 97,87 %
09.09.2022 04:14 14,3 C 13,3 C 10,6 C 97 % 1008,5 hPa 0,0 l/m 0 min 0 min 0 W/m 3,2 km/h (1 Bft) 97,83 %
09.09.2022 04:16 14,3 C 13,9 C 10,6 C 97 % 1008,5 hPa 0,0 l/m 0 min 0 min 0 W/m 3,2 km/h (1 Bft) 97,87 %
09.09.2022 04:18 14,3 C 13,9 C 10,6 C 97 % 1008,5 hPa 0,0 l/m 0 min 0 min 0 W/m 3,2 km/h (1 Bft) 97,87 %
09.09.2022 04:20 14,3 C 13,9 C 10,6 C 97 % 1008,5 hPa 0,0 l/m 0 min 0 min 0 W/m 6,4 km/h (2 Bft) 97,87 %
09.09.2022 04:22 14,3 C 13,9 C 10,6 C 97 % 1008,5 hPa 0,0 l/m 0 min 0 min 0 W/m 3,2 km/h (1 Bft) 95,74 %
09.09.2022 04:24 14,3 C 13,9 C 10,6 C 97 % 1008,5 hPa 0,0 l/m 0 min 0 min 0 W/m 6,4 km/h (2 Bft) 95,74 %
09.09.2022 04:26 14,3 C 13,9 C 10,6 C 97 % 1008,6 hPa 0,0 l/m 0 min 0 min 0 W/m 6,4 km/h (2 Bft) 95,65 %
09.09.2022 04:28 14,4 C 13,9 C 10,6 C 97 % 1008,5 hPa 0,0 l/m 0 min 0 min 0 W/m 6,4 km/h (2 Bft) 97,87 %
09.09.2022 04:30 14,4 C 13,9 C 10,6 C 97 % 1008,5 hPa 0,0 l/m 0 min 0 min 0 W/m 3,2 km/h (1 Bft) 97,87 %
09.09.2022 04:32 14,4 C 13,9 C 10,6 C 97 % 1008,5 hPa 0,0 l/m 0 min 0 min 0 W/m 6,4 km/h (2 Bft) 97,87 %
09.09.2022 04:34 14,4 C 13,9 C 10,6 C 97 % 1008,5 hPa 0,0 l/m 0 min 0 min 0 W/m 3,2 km/h (1 Bft) 97,87 %
09.09.2022 04:36 14,4 C 13,9 C 10,6 C 97 % 1008,5 hPa 0,0 l/m 0 min 0 min 0 W/m 6,4 km/h (2 Bft) 97,87 %
09.09.2022 04:38 14,4 C 13,9 C 10,6 C 97 % 1008,5 hPa 0,0 l/m 0 min 0 min 0 W/m 6,4 km/h (2 Bft) 97,83 %
09.09.2022 04:40 14,4 C 13,9 C 10,6 C 97 % 1008,5 hPa 0,0 l/m 0 min 0 min 0 W/m 3,2 km/h (1 Bft) 95,74 %
09.09.2022 04:42 14,4 C 13,9 C 10,6 C 97 % 1008,5 hPa 0,0 l/m 0 min 0 min 0 W/m 3,2 km/h (1 Bft) 97,87 %
09.09.2022 04:44 14,4 C 13,9 C 10,6 C 97 % 1008,4 hPa 0,0 l/m 0 min 0 min 0 W/m 9,7 km/h (2 Bft) 97,87 %
09.09.2022 04:46 14,5 C 13,9 C 10,6 C 97 % 1008,4 hPa 0,0 l/m 0 min 0 min 0 W/m 9,7 km/h (2 Bft) 97,87 %
09.09.2022 04:48 14,5 C 13,9 C 10,6 C 97 % 1008,4 hPa 0,0 l/m 0 min 0 min 0 W/m 6,4 km/h (2 Bft) 97,87 %
09.09.2022 04:50 14,5 C 13,9 C 10,6 C 97 % 1008,4 hPa 0,0 l/m 0 min 0 min 0 W/m 9,7 km/h (2 Bft) 97,83 %
09.09.2022 04:56 14,5 C 13,9 C 10,6 C 97 % 1008,3 hPa 0,0 l/m 0 min 0 min 0 W/m 0,0 km/h (0 Bft) 97,62 %
09.09.2022 04:58 14,5 C 13,9 C 10,6 C 97 % 1008,3 hPa 0,0 l/m 0 min 0 min 0 W/m 0,0 km/h (0 Bft) 97,73 %
09.09.2022 05:00 14,5 C 13,9 C 10,6 C 97 % 1008,3 hPa 0,0 l/m 0 min 0 min 0 W/m 0,0 km/h (0 Bft) 100,00 %
09.09.2022 05:02 14,5 C 13,9 C 10,6 C 97 % 1008,3 hPa 0,0 l/m 0 min 0 min 0 W/m 0,0 km/h (0 Bft) 100,00 %
09.09.2022 05:04 14,5 C 13,9 C 10,6 C 97 % 1008,3 hPa 0,0 l/m 0 min 0 min 0 W/m 0,0 km/h (0 Bft) 100,00 %
09.09.2022 05:06 14,6 C 13,9 C 10,6 C 97 % 1008,3 hPa 0,0 l/m 0 min 0 min 0 W/m 0,0 km/h (0 Bft) 100,00 %
09.09.2022 05:08 14,5 C 13,9 C 10,6 C 97 % 1008,3 hPa 0,0 l/m 0 min 0 min 0 W/m 3,2 km/h (1 Bft) 95,74 %
09.09.2022 05:10 14,5 C 13,9 C 10,6 C 98 % 1008,3 hPa 0,0 l/m 0 min 0 min 0 W/m 9,7 km/h (2 Bft) 100,00 %
09.09.2022 05:12 14,6 C 13,9 C 10,6 C 98 % 1008,3 hPa 0,0 l/m 0 min 0 min 0 W/m 6,4 km/h (2 Bft) 100,00 %
09.09.2022 05:14 14,6 C 13,9 C 10,6 C 98 % 1008,3 hPa 0,0 l/m 0 min 0 min 0 W/m 6,4 km/h (2 Bft) 97,87 %
09.09.2022 05:16 14,6 C 13,9 C 10,6 C 98 % 1008,3 hPa 0,0 l/m 0 min 0 min 0 W/m 6,4 km/h (2 Bft) 100,00 %
09.09.2022 05:18 14,6 C 13,9 C 10,6 C 98 % 1008,3 hPa 0,0 l/m 0 min 0 min 0 W/m 3,2 km/h (1 Bft) 100,00 %
09.09.2022 05:20 14,5 C 13,9 C 10,6 C 98 % 1008,3 hPa 0,0 l/m 0 min 0 min 0 W/m 6,4 km/h (2 Bft) 100,00 %
09.09.2022 05:22 14,5 C 13,9 C 10,6 C 98 % 1008,3 hPa 0,0 l/m 0 min 0 min 0 W/m 3,2 km/h (1 Bft) 95,65 %
09.09.2022 05:24 14,5 C 13,9 C 10,6 C 98 % 1008,3 hPa 0,0 l/m 0 min 0 min 0 W/m 3,2 km/h (1 Bft) 97,87 %
09.09.2022 05:26 14,6 C 13,9 C 10,6 C 98 % 1008,3 hPa 0,0 l/m 0 min 0 min 0 W/m 3,2 km/h (1 Bft) 97,87 %
09.09.2022 05:28 14,5 C 13,9 C 10,6 C 98 % 1008,2 hPa 0,0 l/m 0 min 0 min 0 W/m 3,2 km/h (1 Bft) 93,62 %
09.09.2022 05:30 14,5 C 13,9 C 10,6 C 98 % 1008,3 hPa 0,0 l/m 0 min 0 min 0 W/m 6,4 km/h (2 Bft) 100,00 %
09.09.2022 05:32 14,5 C 13,9 C 10,6 C 98 % 1008,3 hPa 0,0 l/m 0 min 0 min 0 W/m 3,2 km/h (1 Bft) 95,74 %
09.09.2022 05:34 14,5 C 13,9 C 10,6 C 97 % 1008,3 hPa 0,0 l/m 0 min 0 min 0 W/m 3,2 km/h (1 Bft) 97,83 %
09.09.2022 05:36 14,5 C 13,9 C 10,6 C 97 % 1008,3 hPa 0,0 l/m 0 min 0 min 0 W/m 6,4 km/h (2 Bft) 91,49 %
09.09.2022 05:38 14,5 C 13,9 C 10,6 C 97 % 1008,2 hPa 0,0 l/m 0 min 0 min 0 W/m 6,4 km/h (2 Bft) 97,87 %
09.09.2022 05:40 14,4 C 13,9 C 10,6 C 97 % 1008,3 hPa 0,0 l/m 0 min 0 min 0 W/m 6,4 km/h (2 Bft) 95,74 %
09.09.2022 05:42 14,4 C 13,9 C 10,6 C 97 % 1008,3 hPa 0,0 l/m 0 min 0 min 0 W/m 6,4 km/h (2 Bft) 95,74 %
09.09.2022 05:44 14,4 C 13,9 C 10,6 C 97 % 1008,3 hPa 0,0 l/m 0 min 0 min 0 W/m 3,2 km/h (1 Bft) 95,74 %
09.09.2022 05:46 14,4 C 13,9 C 10,6 C 97 % 1008,2 hPa 0,0 l/m 0 min 0 min 0 W/m 3,2 km/h (1 Bft) 93,48 %
09.09.2022 05:48 14,4 C 13,9 C 10,6 C 97 % 1008,2 hPa 0,0 l/m 0 min 0 min 0 W/m 3,2 km/h (1 Bft) 95,74 %
09.09.2022 05:50 14,4 C 13,9 C 10,6 C 97 % 1008,2 hPa 0,0 l/m 0 min 0 min 0 W/m 3,2 km/h (1 Bft) 95,74 %
09.09.2022 05:52 14,4 C 13,9 C 10,6 C 97 % 1008,2 hPa 0,0 l/m 0 min 0 min 0 W/m 3,2 km/h (1 Bft) 95,74 %
09.09.2022 05:54 14,4 C 13,9 C 10,6 C 97 % 1008,2 hPa 0,0 l/m 0 min 0 min 0 W/m 3,2 km/h (1 Bft) 97,87 %
09.09.2022 05:56 14,3 C 13,9 C 10,6 C 97 % 1008,2 hPa 0,0 l/m 0 min 0 min 0 W/m 6,4 km/h (2 Bft) 95,74 %
09.09.2022 05:58 14,3 C 13,9 C 10,6 C 97 % 1008,3 hPa 0,0 l/m 0 min 0 min 0 W/m 6,4 km/h (2 Bft) 97,87 %
09.09.2022 06:00 14,4 C 13,9 C 10,6 C 97 % 1008,2 hPa 0,0 l/m 0 min 0 min 0 W/m 0,0 km/h (0 Bft) 97,83 %
09.09.2022 06:02 14,4 C 13,9 C 10,6 C 97 % 1008,2 hPa 0,0 l/m 0 min 0 min 0 W/m 6,4 km/h (2 Bft) 97,87 %
09.09.2022 06:04 14,4 C 13,9 C 10,6 C 97 % 1008,2 hPa 0,0 l/m 0 min 0 min 0 W/m 6,4 km/h (2 Bft) 95,74 %
09.09.2022 06:08 14,4 C 13,9 C 10,6 C 97 % 1008,3 hPa 0,0 l/m 0 min 0 min 0 W/m 3,2 km/h (1 Bft) 97,87 %
09.09.2022 06:10 14,4 C 13,9 C 10,6 C 97 % 1008,3 hPa 0,0 l/m 0 min 0 min 0 W/m 3,2 km/h (1 Bft) 97,87 %
09.09.2022 06:12 14,4 C 13,9 C 10,6 C 97 % 1008,2 hPa 0,0 l/m 0 min 0 min 0 W/m 3,2 km/h (1 Bft) 97,87 %
09.09.2022 06:14 14,4 C 13,9 C 10,6 C 97 % 1008,3 hPa 0,0 l/m 0 min 0 min 0 W/m 3,2 km/h (1 Bft) 95,74 %
09.09.2022 06:16 14,4 C 13,9 C 10,6 C 97 % 1008,3 hPa 0,0 l/m 0 min 0 min 0 W/m 6,4 km/h (2 Bft) 97,83 %
09.09.2022 06:18 14,4 C 13,9 C 10,6 C 97 % 1008,3 hPa 0,0 l/m 0 min 0 min 0 W/m 3,2 km/h (1 Bft) 97,87 %
09.09.2022 06:20 14,4 C 13,9 C 10,6 C 97 % 1008,3 hPa 0,0 l/m 0 min 0 min 0 W/m 3,2 km/h (1 Bft) 95,74 %
09.09.2022 06:22 14,4 C 13,9 C 10,6 C 97 % 1008,3 hPa 0,0 l/m 0 min 0 min 0 W/m 0,0 km/h (0 Bft) 97,87 %
09.09.2022 06:24 14,4 C 13,9 C 10,6 C 97 % 1008,3 hPa 0,0 l/m 0 min 0 min 0 W/m 3,2 km/h (1 Bft) 100,00 %
09.09.2022 06:26 14,4 C 13,9 C 10,6 C 97 % 1008,3 hPa 0,0 l/m 0 min 0 min 0 W/m 3,2 km/h (1 Bft) 95,74 %
09.09.2022 06:28 14,4 C 13,9 C 10,6 C 97 % 1008,3 hPa 0,0 l/m 0 min 0 min 0 W/m 3,2 km/h (1 Bft) 95,74 %
09.09.2022 06:30 14,4 C 13,9 C 10,6 C 97 % 1008,3 hPa 0,0 l/m 0 min 0 min 0 W/m 6,4 km/h (2 Bft) 95,65 %
09.09.2022 06:32 14,4 C 13,9 C 10,6 C 97 % 1008,3 hPa 0,0 l/m 0 min 0 min 0 W/m 6,4 km/h (2 Bft) 93,62 %
09.09.2022 06:34 14,4 C 13,9 C 10,6 C 97 % 1008,3 hPa 0,0 l/m 0 min 0 min 0 W/m 3,2 km/h (1 Bft) 97,87 %
09.09.2022 06:36 14,4 C 13,9 C 10,6 C 97 % 1008,4 hPa 0,0 l/m 0 min 0 min 0 W/m 3,2 km/h (1 Bft) 100,00 %
09.09.2022 06:38 14,4 C 13,9 C 10,6 C 97 % 1008,4 hPa 0,0 l/m 0 min 0 min 0 W/m 3,2 km/h (1 Bft) 94,29 %
09.09.2022 06:40 14,4 C 13,9 C 10,6 C 97 % 1008,4 hPa 0,0 l/m 0 min 0 min 0 W/m 3,2 km/h (1 Bft) 100,00 %
09.09.2022 06:42 14,5 C 13,9 C 10,6 C 97 % 1008,3 hPa 0,0 l/m 0 min 0 min 0 W/m 3,2 km/h (1 Bft) 97,83 %
09.09.2022 06:44 14,5 C 13,9 C 10,6 C 97 % 1008,3 hPa 0,0 l/m 0 min 0 min 0 W/m 0,0 km/h (0 Bft) 100,00 %
09.09.2022 06:46 14,5 C 13,9 C 10,6 C 97 % 1008,3 hPa 0,0 l/m 0 min 0 min 0 W/m 0,0 km/h (0 Bft) 97,87 %
09.09.2022 06:48 14,5 C 13,9 C 10,6 C 97 % 1008,3 hPa 0,0 l/m 0 min 0 min 0 W/m 3,2 km/h (1 Bft) 97,87 %
09.09.2022 06:50 14,5 C 13,9 C 10,6 C 97 % 1008,3 hPa 0,0 l/m 0 min 0 min 0 W/m 3,2 km/h (1 Bft) 97,87 %
09.09.2022 06:52 14,5 C 13,9 C 10,6 C 97 % 1008,3 hPa 0,0 l/m 0 min 0 min 0 W/m 3,2 km/h (1 Bft) 95,74 %
09.09.2022 06:54 14,5 C 13,9 C 10,6 C 98 % 1008,3 hPa 0,0 l/m 0 min 0 min 0 W/m 3,2 km/h (1 Bft) 97,87 %
09.09.2022 06:56 14,6 C 13,9 C 10,6 C 98 % 1008,2 hPa 0,0 l/m 0 min 0 min 0 W/m 3,2 km/h (1 Bft) 95,65 %
09.09.2022 06:58 14,6 C 13,9 C 10,6 C 98 % 1008,3 hPa 0,0 l/m 0 min 0 min 0 W/m 3,2 km/h (1 Bft) 97,87 %
09.09.2022 07:00 14,6 C 13,9 C 10,6 C 98 % 1008,3 hPa 0,0 l/m 0 min 0 min 0 W/m 3,2 km/h (1 Bft) 95,74 %
09.09.2022 07:02 14,6 C 13,9 C 10,6 C 98 % 1008,3 hPa 0,0 l/m 0 min 0 min 0 W/m 3,2 km/h (1 Bft) 97,87 %
09.09.2022 07:04 14,6 C 13,9 C 10,6 C 98 % 1008,3 hPa 0,0 l/m 0 min 0 min 0 W/m 6,4 km/h (2 Bft) 97,87 %
09.09.2022 07:06 14,6 C 13,9 C 10,6 C 98 % 1008,3 hPa 0,0 l/m 0 min 0 min 0 W/m 3,2 km/h (1 Bft) 98,28 %
09.09.2022 07:08 14,6 C 13,9 C 10,6 C 98 % 1008,2 hPa 0,0 l/m 0 min 0 min 4 W/m 3,2 km/h (1 Bft) 97,14 %
09.09.2022 07:10 14,6 C 14,4 C 10,6 C 98 % 1008,3 hPa 0,0 l/m 0 min 0 min 5 W/m 3,2 km/h (1 Bft) 97,87 %
09.09.2022 07:12 14,6 C 14,4 C 10,6 C 98 % 1008,2 hPa 0,0 l/m 0 min 0 min 5 W/m 3,2 km/h (1 Bft) 97,87 %
09.09.2022 07:14 14,7 C 14,4 C 10,6 C 98 % 1008,2 hPa 0,0 l/m 0 min 0 min 5 W/m 3,2 km/h (1 Bft) 95,74 %
09.09.2022 07:16 14,7 C 14,4 C 10,6 C 98 % 1008,3 hPa 0,0 l/m 0 min 0 min 7 W/m 3,2 km/h (1 Bft) 95,74 %
09.09.2022 07:18 14,7 C 14,4 C 10,6 C 98 % 1008,2 hPa 0,0 l/m 0 min 0 min 7 W/m 3,2 km/h (1 Bft) 95,65 %
09.09.2022 07:20 14,7 C 14,4 C 10,6 C 98 % 1008,2 hPa 0,0 l/m 0 min 0 min 8 W/m 3,2 km/h (1 Bft) 95,74 %
09.09.2022 07:22 14,7 C 14,4 C 10,6 C 98 % 1008,3 hPa 0,0 l/m 0 min 0 min 9 W/m 3,2 km/h (1 Bft) 95,74 %
09.09.2022 07:24 14,7 C 14,4 C 10,6 C 98 % 1008,3 hPa 0,0 l/m 0 min 0 min 12 W/m 6,4 km/h (2 Bft) 95,74 %
09.09.2022 07:26 14,8 C 14,4 C 10,6 C 98 % 1008,2 hPa 0,0 l/m 0 min 0 min 13 W/m 3,2 km/h (1 Bft) 95,74 %
09.09.2022 07:28 14,8 C 14,4 C 10,6 C 98 % 1008,2 hPa 0,0 l/m 0 min 0 min 14 W/m 9,7 km/h (2 Bft) 95,74 %
09.09.2022 07:30 14,8 C 14,4 C 11,1 C 98 % 1008,2 hPa 0,0 l/m 0 min 0 min 14 W/m 3,2 km/h (1 Bft) 95,65 %
09.09.2022 07:32 14,8 C 14,4 C 11,1 C 98 % 1008,3 hPa 0,0 l/m 0 min 0 min 18 W/m 3,2 km/h (1 Bft) 97,87 %
09.09.2022 07:34 14,8 C 14,4 C 11,1 C 98 % 1008,3 hPa 0,0 l/m 0 min 0 min 19 W/m 3,2 km/h (1 Bft) 97,87 %
09.09.2022 07:36 14,8 C 14,4 C 11,1 C 98 % 1008,3 hPa 0,0 l/m 0 min 0 min 19 W/m 3,2 km/h (1 Bft) 96,61 %
09.09.2022 07:38 14,8 C 14,4 C 11,1 C 98 % 1008,3 hPa 0,0 l/m 0 min 0 min 21 W/m 3,2 km/h (1 Bft) 94,29 %
09.09.2022 07:40 14,8 C 14,4 C 11,1 C 98 % 1008,3 hPa 0,0 l/m 0 min 0 min 21 W/m 3,2 km/h (1 Bft) 97,87 %
09.09.2022 07:42 14,8 C 14,4 C 11,1 C 98 % 1008,3 hPa 0,0 l/m 0 min 0 min 23 W/m 3,2 km/h (1 Bft) 97,83 %
09.09.2022 07:44 14,9 C 14,4 C 11,1 C 98 % 1008,3 hPa 0,0 l/m 0 min 0 min 25 W/m 3,2 km/h (1 Bft) 97,87 %
09.09.2022 07:46 14,9 C 14,4 C 11,1 C 98 % 1008,3 hPa 0,0 l/m 0 min 0 min 26 W/m 3,2 km/h (1 Bft) 100,00 %
09.09.2022 07:48 14,9 C 14,4 C 11,1 C 98 % 1008,3 hPa 0,0 l/m 0 min 0 min 26 W/m 6,4 km/h (2 Bft) 100,00 %
09.09.2022 07:50 14,9 C 14,4 C 11,1 C 98 % 1008,3 hPa 0,0 l/m 0 min 0 min 25 W/m 3,2 km/h (1 Bft) 100,00 %
09.09.2022 07:52 14,9 C 14,4 C 11,1 C 98 % 1008,3 hPa 0,0 l/m 0 min 0 min 26 W/m 3,2 km/h (1 Bft) 100,00 %
09.09.2022 07:54 14,9 C 14,4 C 11,1 C 98 % 1008,3 hPa 0,0 l/m 0 min 0 min 26 W/m 6,4 km/h (2 Bft) 95,65 %
09.09.2022 07:56 14,9 C 14,4 C 11,1 C 98 % 1008,3 hPa 0,0 l/m 0 min 0 min 29 W/m 3,2 km/h (1 Bft) 100,00 %
09.09.2022 07:58 14,9 C 14,4 C 11,1 C 98 % 1008,3 hPa 0,0 l/m 0 min 0 min 31 W/m 3,2 km/h (1 Bft) 100,00 %
09.09.2022 08:00 14,9 C 14,4 C 11,1 C 98 % 1008,3 hPa 0,0 l/m 0 min 0 min 33 W/m 6,4 km/h (2 Bft) 100,00 %
09.09.2022 08:02 14,9 C 14,4 C 11,1 C 98 % 1008,3 hPa 0,0 l/m 0 min 0 min 35 W/m 6,4 km/h (2 Bft) 97,87 %
09.09.2022 08:04 14,9 C 14,4 C 11,1 C 98 % 1008,3 hPa 0,0 l/m 0 min 0 min 37 W/m 6,4 km/h (2 Bft) 100,00 %
09.09.2022 08:06 14,9 C 14,4 C 11,1 C 98 % 1008,3 hPa 0,0 l/m 0 min 0 min 39 W/m 3,2 km/h (1 Bft) 98,28 %
09.09.2022 08:08 14,9 C 14,4 C 11,1 C 98 % 1008,4 hPa 0,0 l/m 0 min 0 min 39 W/m 3,2 km/h (1 Bft) 97,14 %
09.09.2022 08:10 14,9 C 15,0 C 11,1 C 98 % 1008,3 hPa 0,0 l/m 0 min 0 min 40 W/m 9,7 km/h (2 Bft) 100,00 %
09.09.2022 08:12 15,0 C 15,0 C 11,1 C 98 % 1008,4 hPa 0,0 l/m 0 min 0 min 40 W/m 3,2 km/h (1 Bft) 100,00 %
09.09.2022 08:14 15,0 C 15,0 C 11,1 C 97 % 1008,4 hPa 0,0 l/m 0 min 0 min 40 W/m 6,4 km/h (2 Bft) 100,00 %
09.09.2022 08:16 15,0 C 15,0 C 11,1 C 97 % 1008,4 hPa 0,0 l/m 0 min 0 min 37 W/m 3,2 km/h (1 Bft) 97,87 %
09.09.2022 08:18 15,0 C 15,0 C 11,1 C 97 % 1008,4 hPa 0,0 l/m 0 min 0 min 37 W/m 3,2 km/h (1 Bft) 100,00 %
09.09.2022 08:20 15,1 C 15,0 C 11,1 C 97 % 1008,5 hPa 0,0 l/m 0 min 0 min 37 W/m 9,7 km/h (2 Bft) 100,00 %
09.09.2022 08:22 15,1 C 15,0 C 11,1 C 97 % 1008,4 hPa 0,0 l/m 0 min 0 min 38 W/m 12,9 km/h (3 Bft) 100,00 %
09.09.2022 08:24 15,1 C 15,0 C 11,1 C 97 % 1008,5 hPa 0,0 l/m 0 min 0 min 40 W/m 6,4 km/h (2 Bft) 100,00 %
09.09.2022 08:26 15,1 C 15,0 C 11,7 C 97 % 1008,5 hPa 0,0 l/m 0 min 0 min 43 W/m 3,2 km/h (1 Bft) 100,00 %
09.09.2022 08:28 15,1 C 15,0 C 11,7 C 97 % 1008,5 hPa 0,0 l/m 0 min 0 min 47 W/m 12,9 km/h (3 Bft) 100,00 %
09.09.2022 08:30 15,1 C 15,0 C 11,7 C 97 % 1008,5 hPa 0,0 l/m 0 min 0 min 50 W/m 12,9 km/h (3 Bft) 100,00 %
09.09.2022 08:32 15,1 C 15,0 C 11,7 C 97 % 1008,4 hPa 0,0 l/m 0 min 0 min 50 W/m 6,4 km/h (2 Bft) 100,00 %
09.09.2022 08:34 15,2 C 15,0 C 11,7 C 97 % 1008,4 hPa 0,0 l/m 0 min 0 min 47 W/m 12,9 km/h (3 Bft) 97,87 %
09.09.2022 08:36 15,2 C 15,0 C 11,7 C 97 % 1008,5 hPa 0,0 l/m 0 min 0 min 45 W/m 12,9 km/h (3 Bft) 98,31 %
09.09.2022 08:38 15,2 C 15,0 C 11,7 C 97 % 1008,5 hPa 0,0 l/m 0 min 0 min 45 W/m 16,1 km/h (3 Bft) 100,00 %
09.09.2022 08:40 15,3 C 15,0 C 11,7 C 97 % 1008,5 hPa 0,0 l/m 0 min 0 min 46 W/m 12,9 km/h (3 Bft) 100,00 %
09.09.2022 08:42 15,3 C 15,6 C 11,7 C 97 % 1008,4 hPa 0,0 l/m 0 min 0 min 51 W/m 9,7 km/h (2 Bft) 97,83 %
09.09.2022 08:44 15,3 C 15,6 C 11,7 C 97 % 1008,4 hPa 0,0 l/m 0 min 0 min 54 W/m 12,9 km/h (3 Bft) 95,74 %
09.09.2022 08:46 15,3 C 15,6 C 11,7 C 97 % 1008,4 hPa 0,0 l/m 0 min 0 min 61 W/m 16,1 km/h (3 Bft) 97,87 %
09.09.2022 08:48 15,3 C 15,6 C 11,7 C 96 % 1008,5 hPa 0,0 l/m 0 min 0 min 73 W/m 16,1 km/h (3 Bft) 97,87 %
09.09.2022 08:50 15,4 C 15,6 C 11,7 C 96 % 1008,5 hPa 0,0 l/m 0 min 0 min 92 W/m 9,7 km/h (2 Bft) 97,87 %
09.09.2022 08:52 15,4 C 15,6 C 12,2 C 96 % 1008,4 hPa 0,0 l/m 0 min 0 min 108 W/m 16,1 km/h (3 Bft) 97,87 %
09.09.2022 08:54 15,4 C 15,6 C 12,2 C 96 % 1008,5 hPa 0,0 l/m 0 min 0 min 112 W/m 19,3 km/h (3 Bft) 97,83 %
09.09.2022 08:56 15,5 C 16,1 C 12,2 C 96 % 1008,4 hPa 0,0 l/m 0 min 0 min 108 W/m 12,9 km/h (3 Bft) 97,87 %
09.09.2022 08:58 15,6 C 16,1 C 12,2 C 96 % 1008,4 hPa 0,0 l/m 0 min 0 min 97 W/m 12,9 km/h (3 Bft) 93,62 %
09.09.2022 09:00 15,6 C 16,1 C 12,2 C 96 % 1008,4 hPa 0,0 l/m 0 min 0 min 87 W/m 6,4 km/h (2 Bft) 97,87 %
09.09.2022 09:02 15,7 C 16,1 C 12,2 C 96 % 1008,4 hPa 0,0 l/m 0 min 0 min 78 W/m 9,7 km/h (2 Bft) 95,74 %
09.09.2022 09:04 15,7 C 16,1 C 12,2 C 96 % 1008,4 hPa 0,0 l/m 0 min 0 min 70 W/m 9,7 km/h (2 Bft) 95,74 %
09.09.2022 09:06 15,8 C 16,1 C 12,2 C 95 % 1008,4 hPa 0,0 l/m 0 min 0 min 76 W/m 12,9 km/h (3 Bft) 93,10 %
09.09.2022 09:08 15,8 C 16,1 C 12,2 C 95 % 1008,5 hPa 0,0 l/m 0 min 0 min 69 W/m 12,9 km/h (3 Bft) 94,29 %
09.09.2022 09:10 15,8 C 16,1 C 12,2 C 95 % 1008,5 hPa 0,0 l/m 0 min 0 min 79 W/m 6,4 km/h (2 Bft) 95,74 %
09.09.2022 09:12 15,8 C 16,1 C 12,2 C 95 % 1008,5 hPa 0,0 l/m 0 min 0 min 124 W/m 12,9 km/h (3 Bft) 95,74 %
09.09.2022 09:14 15,9 C 16,1 C 12,8 C 94 % 1008,5 hPa 0,0 l/m 0 min 0 min 97 W/m 19,3 km/h (3 Bft) 91,49 %
09.09.2022 09:16 15,9 C 16,1 C 12,8 C 94 % 1008,5 hPa 0,0 l/m 0 min 0 min 84 W/m 9,7 km/h (2 Bft) 95,74 %
09.09.2022 09:18 16,0 C 16,1 C 12,8 C 94 % 1008,6 hPa 0,0 l/m 0 min 0 min 83 W/m 12,9 km/h (3 Bft) 95,65 %
09.09.2022 09:20 16,1 C 16,1 C 12,8 C 93 % 1008,7 hPa 0,0 l/m 0 min 0 min 73 W/m 25,7 km/h (4 Bft) 95,74 %
09.09.2022 09:22 16,1 C 16,1 C 12,8 C 93 % 1008,7 hPa 0,0 l/m 0 min 0 min 98 W/m 19,3 km/h (3 Bft) 96,30 %
09.09.2022 09:24 16,2 C 16,1 C 12,8 C 92 % 1008,6 hPa 0,0 l/m 0 min 0 min 73 W/m 22,5 km/h (4 Bft) 96,00 %
09.09.2022 09:26 16,3 C 16,1 C 12,8 C 92 % 1008,6 hPa 0,0 l/m 0 min 0 min 60 W/m 29,0 km/h (5 Bft) 95,74 %
09.09.2022 09:28 16,3 C 16,1 C 12,8 C 91 % 1008,7 hPa 0,0 l/m 0 min 0 min 61 W/m 29,0 km/h (5 Bft) 93,62 %
09.09.2022 09:30 16,4 C 16,1 C 12,8 C 91 % 1008,7 hPa 0,0 l/m 0 min 0 min 60 W/m 19,3 km/h (3 Bft) 91,67 %
09.09.2022 09:32 16,4 C 16,1 C 12,8 C 90 % 1008,6 hPa 0,0 l/m 0 min 0 min 59 W/m 19,3 km/h (3 Bft) 91,43 %
09.09.2022 09:34 16,4 C 16,1 C 12,8 C 90 % 1008,6 hPa 0,0 l/m 0 min 0 min 72 W/m 22,5 km/h (4 Bft) 91,49 %
09.09.2022 09:36 16,5 C 16,1 C 12,8 C 90 % 1008,7 hPa 0,0 l/m 0 min 0 min 91 W/m 22,5 km/h (4 Bft) 93,22 %
09.09.2022 09:38 16,6 C 16,7 C 12,8 C 89 % 1008,7 hPa 0,0 l/m 0 min 0 min 72 W/m 25,7 km/h (4 Bft) 97,14 %
09.09.2022 09:40 16,6 C 16,7 C 12,8 C 89 % 1008,7 hPa 0,0 l/m 0 min 0 min 98 W/m 19,3 km/h (3 Bft) 97,87 %
09.09.2022 09:42 16,7 C 16,7 C 12,8 C 88 % 1008,7 hPa 0,0 l/m 0 min 0 min 145 W/m 19,3 km/h (3 Bft) 95,65 %
09.09.2022 09:44 16,8 C 16,7 C 12,8 C 88 % 1008,7 hPa 0,0 l/m 0 min 0 min 156 W/m 19,3 km/h (3 Bft) 97,87 %
09.09.2022 09:46 16,8 C 17,2 C 13,3 C 88 % 1008,7 hPa 0,0 l/m 0 min 0 min 172 W/m 35,4 km/h (5 Bft) 93,62 %
09.09.2022 09:48 16,9 C 17,2 C 13,3 C 88 % 1008,7 hPa 0,0 l/m 0 min 0 min 170 W/m 12,9 km/h (3 Bft) 97,87 %
09.09.2022 09:50 17,0 C 17,2 C 13,3 C 87 % 1008,8 hPa 0,0 l/m 0 min 0 min 162 W/m 19,3 km/h (3 Bft) 97,87 %
09.09.2022 09:52 17,1 C 17,2 C 13,3 C 87 % 1008,8 hPa 0,0 l/m 0 min 0 min 162 W/m 32,2 km/h (5 Bft) 97,87 %
09.09.2022 09:54 17,1 C 17,2 C 13,3 C 86 % 1008,8 hPa 0,0 l/m 0 min 0 min 145 W/m 22,5 km/h (4 Bft) 97,83 %
09.09.2022 09:56 17,1 C 17,2 C 13,3 C 86 % 1008,8 hPa 0,0 l/m 0 min 0 min 183 W/m 22,5 km/h (4 Bft) 97,87 %
09.09.2022 09:58 17,2 C 17,2 C 13,3 C 86 % 1008,7 hPa 0,0 l/m 0 min 0 min 170 W/m 29,0 km/h (5 Bft) 97,87 %
09.09.2022 10:00 17,2 C 17,2 C 13,3 C 85 % 1008,7 hPa 0,0 l/m 0 min 0 min 156 W/m 29,0 km/h (5 Bft) 95,74 %
09.09.2022 10:02 17,3 C 17,2 C 13,3 C 85 % 1008,7 hPa 0,0 l/m 0 min 0 min 161 W/m 22,5 km/h (4 Bft) 97,87 %
09.09.2022 10:04 17,3 C 17,8 C 13,3 C 85 % 1008,7 hPa 0,0 l/m 0 min 0 min 98 W/m 19,3 km/h (3 Bft) 97,87 %
09.09.2022 10:06 17,4 C 17,8 C 13,3 C 85 % 1008,7 hPa 0,0 l/m 0 min 0 min 91 W/m 19,3 km/h (3 Bft) 98,28 %
09.09.2022 10:08 17,5 C 17,8 C 13,3 C 84 % 1008,7 hPa 0,0 l/m 2 min 0 min 236 W/m 19,3 km/h (3 Bft) 97,14 %
09.09.2022 10:10 17,6 C 17,8 C 13,9 C 84 % 1008,7 hPa 0,0 l/m 0 min 0 min 208 W/m 29,0 km/h (5 Bft) 97,87 %
09.09.2022 10:12 17,6 C 17,8 C 13,9 C 84 % 1008,7 hPa 0,0 l/m 0 min 0 min 148 W/m 12,9 km/h (3 Bft) 100,00 %
09.09.2022 10:14 17,7 C 18,3 C 13,9 C 84 % 1008,7 hPa 0,0 l/m 0 min 0 min 171 W/m 9,7 km/h (2 Bft) 100,00 %
09.09.2022 10:16 17,8 C 18,9 C 13,9 C 84 % 1008,7 hPa 0,0 l/m 0 min 0 min 167 W/m 16,1 km/h (3 Bft) 100,00 %
09.09.2022 10:18 17,9 C 19,4 C 14,4 C 84 % 1008,7 hPa 0,0 l/m 0 min 0 min 159 W/m 16,1 km/h (3 Bft) 100,00 %
09.09.2022 10:20 18,1 C 19,4 C 14,4 C 83 % 1008,7 hPa 0,0 l/m 0 min 0 min 170 W/m 16,1 km/h (3 Bft) 97,87 %
09.09.2022 10:22 18,2 C 19,4 C 14,4 C 82 % 1008,7 hPa 0,0 l/m 0 min 0 min 200 W/m 19,3 km/h (3 Bft) 97,87 %
09.09.2022 10:24 18,3 C 19,4 C 14,4 C 82 % 1008,7 hPa 0,0 l/m 0 min 0 min 226 W/m 32,2 km/h (5 Bft) 100,00 %
09.09.2022 10:26 18,4 C 19,4 C 15,0 C 82 % 1008,7 hPa 0,0 l/m 2 min 0 min 263 W/m 19,3 km/h (3 Bft) 100,00 %
09.09.2022 10:28 18,5 C 19,4 C 15,0 C 81 % 1008,8 hPa 0,0 l/m 2 min 0 min 289 W/m 22,5 km/h (4 Bft) 100,00 %
09.09.2022 10:30 18,6 C 19,4 C 15,0 C 81 % 1008,8 hPa 0,0 l/m 2 min 0 min 266 W/m 22,5 km/h (4 Bft) 100,00 %
09.09.2022 10:32 18,6 C 18,9 C 15,0 C 80 % 1008,8 hPa 0,0 l/m 0 min 0 min 198 W/m 16,1 km/h (3 Bft) 97,87 %
09.09.2022 10:34 18,7 C 18,9 C 15,0 C 80 % 1008,9 hPa 0,0 l/m 0 min 0 min 167 W/m 29,0 km/h (5 Bft) 100,00 %
09.09.2022 10:36 18,7 C 18,9 C 15,0 C 80 % 1008,8 hPa 0,0 l/m 0 min 0 min 142 W/m 16,1 km/h (3 Bft) 100,00 %
09.09.2022 10:38 18,7 C 18,3 C 14,4 C 79 % 1008,8 hPa 0,0 l/m 0 min 0 min 136 W/m 22,5 km/h (4 Bft) 100,00 %
09.09.2022 10:40 18,7 C 18,3 C 14,4 C 79 % 1008,8 hPa 0,0 l/m 0 min 0 min 144 W/m 22,5 km/h (4 Bft) 100,00 %
09.09.2022 10:42 18,6 C 18,3 C 14,4 C 79 % 1008,9 hPa 0,0 l/m 0 min 0 min 148 W/m 16,1 km/h (3 Bft) 100,00 %
09.09.2022 10:44 18,6 C 18,3 C 14,4 C 79 % 1008,8 hPa 0,0 l/m 0 min 0 min 176 W/m 19,3 km/h (3 Bft) 100,00 %
09.09.2022 10:46 18,6 C 18,3 C 14,4 C 79 % 1009,0 hPa 0,0 l/m 0 min 0 min 178 W/m 29,0 km/h (5 Bft) 100,00 %
09.09.2022 10:48 18,6 C 18,3 C 14,4 C 78 % 1008,9 hPa 0,0 l/m 0 min 0 min 217 W/m 22,5 km/h (4 Bft) 100,00 %
09.09.2022 10:50 18,6 C 18,3 C 14,4 C 78 % 1008,9 hPa 0,0 l/m 0 min 0 min 221 W/m 29,0 km/h (5 Bft) 100,00 %
09.09.2022 10:52 18,5 C 18,3 C 14,4 C 78 % 1008,9 hPa 0,0 l/m 0 min 0 min 231 W/m 29,0 km/h (5 Bft) 100,00 %
09.09.2022 10:54 18,6 C 18,3 C 14,4 C 78 % 1008,9 hPa 0,0 l/m 0 min 0 min 188 W/m 25,7 km/h (4 Bft) 97,83 %
09.09.2022 10:56 18,6 C 18,3 C 14,4 C 78 % 1009,0 hPa 0,0 l/m 0 min 0 min 164 W/m 29,0 km/h (5 Bft) 100,00 %
09.09.2022 10:58 18,5 C 18,3 C 14,4 C 78 % 1009,0 hPa 0,0 l/m 0 min 0 min 164 W/m 19,3 km/h (3 Bft) 97,87 %
09.09.2022 11:00 18,5 C 18,3 C 14,4 C 78 % 1009,0 hPa 0,0 l/m 0 min 0 min 175 W/m 29,0 km/h (5 Bft) 100,00 %
09.09.2022 11:02 18,5 C 18,3 C 14,4 C 78 % 1008,9 hPa 0,0 l/m 0 min 0 min 128 W/m 22,5 km/h (4 Bft) 97,87 %
09.09.2022 11:04 18,4 C 17,8 C 14,4 C 78 % 1009,0 hPa 0,0 l/m 0 min 0 min 104 W/m 29,0 km/h (5 Bft) 97,87 %
09.09.2022 11:06 18,4 C 17,8 C 14,4 C 77 % 1008,9 hPa 0,0 l/m 0 min 0 min 135 W/m 35,4 km/h (5 Bft) 98,31 %
09.09.2022 11:08 18,4 C 18,3 C 14,4 C 78 % 1009,0 hPa 0,0 l/m 0 min 0 min 185 W/m 19,3 km/h (3 Bft) 97,14 %
09.09.2022 11:10 18,4 C 18,3 C 14,4 C 78 % 1009,0 hPa 0,0 l/m 0 min 0 min 213 W/m 32,2 km/h (5 Bft) 95,74 %
09.09.2022 11:12 18,4 C 18,3 C 14,4 C 78 % 1009,0 hPa 0,0 l/m 0 min 0 min 192 W/m 35,4 km/h (5 Bft) 97,87 %
09.09.2022 11:14 18,4 C 18,3 C 14,4 C 78 % 1009,0 hPa 0,0 l/m 0 min 0 min 178 W/m 25,7 km/h (4 Bft) 97,87 %
09.09.2022 11:16 18,4 C 18,3 C 14,4 C 78 % 1009,0 hPa 0,0 l/m 0 min 0 min 172 W/m 22,5 km/h (4 Bft) 97,87 %
09.09.2022 11:18 18,4 C 18,3 C 14,4 C 79 % 1009,0 hPa 0,0 l/m 0 min 0 min 183 W/m 16,1 km/h (3 Bft) 97,83 %
09.09.2022 11:20 18,5 C 18,3 C 14,4 C 78 % 1009,0 hPa 0,0 l/m 0 min 0 min 228 W/m 16,1 km/h (3 Bft) 97,87 %
09.09.2022 11:22 18,5 C 18,9 C 15,0 C 78 % 1009,0 hPa 0,0 l/m 0 min 0 min 259 W/m 32,2 km/h (5 Bft) 97,87 %
09.09.2022 11:24 18,6 C 18,9 C 15,0 C 77 % 1009,0 hPa 0,0 l/m 2 min 0 min 298 W/m 29,0 km/h (5 Bft) 95,74 %
09.09.2022 11:26 18,7 C 19,4 C 15,6 C 77 % 1009,0 hPa 0,0 l/m 2 min 0 min 349 W/m 19,3 km/h (3 Bft) 95,74 %
09.09.2022 11:28 18,8 C 20,0 C 15,6 C 78 % 1009,0 hPa 0,0 l/m 2 min 0 min 319 W/m 9,7 km/h (2 Bft) 95,65 %
09.09.2022 11:30 18,9 C 20,0 C 16,1 C 78 % 1009,0 hPa 0,0 l/m 2 min 0 min 318 W/m 38,6 km/h (5 Bft) 91,49 %
09.09.2022 11:32 19,1 C 20,6 C 16,1 C 77 % 1009,0 hPa 0,0 l/m 2 min 0 min 399 W/m 22,5 km/h (4 Bft) 95,74 %
09.09.2022 11:34 19,3 C 21,1 C 16,7 C 77 % 1008,9 hPa 0,0 l/m 2 min 0 min 410 W/m 19,3 km/h (3 Bft) 95,74 %
09.09.2022 11:36 19,6 C 21,1 C 16,7 C 75 % 1008,9 hPa 0,0 l/m 2 min 0 min 432 W/m 25,7 km/h (4 Bft) 91,53 %
09.09.2022 11:38 19,6 C 21,1 C 16,7 C 74 % 1009,0 hPa 0,0 l/m 0 min 0 min 271 W/m 32,2 km/h (5 Bft) 97,14 %
09.09.2022 11:40 19,7 C 21,7 C 16,7 C 74 % 1008,9 hPa 0,0 l/m 0 min 0 min 236 W/m 25,7 km/h (4 Bft) 97,87 %
09.09.2022 11:42 19,8 C 22,8 C 16,7 C 73 % 1009,0 hPa 0,0 l/m 2 min 0 min 548 W/m 32,2 km/h (5 Bft) 95,65 %
09.09.2022 11:44 19,8 C 22,8 C 16,7 C 73 % 1009,0 hPa 0,0 l/m 2 min 0 min 732 W/m 19,3 km/h (3 Bft) 97,87 %
09.09.2022 11:46 19,9 C 22,8 C 16,7 C 73 % 1009,0 hPa 0,0 l/m 0 min 0 min 262 W/m 32,2 km/h (5 Bft) 95,74 %
09.09.2022 11:48 19,9 C 22,2 C 16,7 C 73 % 1008,9 hPa 0,0 l/m 2 min 0 min 874 W/m 32,2 km/h (5 Bft) 97,87 %
09.09.2022 11:50 20,0 C 22,8 C 17,2 C 72 % 1009,0 hPa 0,0 l/m 2 min 0 min 454 W/m 41,8 km/h (6 Bft) 97,87 %
09.09.2022 11:52 20,0 C 22,8 C 17,2 C 71 % 1009,0 hPa 0,0 l/m 2 min 0 min 643 W/m 29,0 km/h (5 Bft) 95,65 %
09.09.2022 11:54 20,0 C 21,7 C 16,7 C 71 % 1009,0 hPa 0,0 l/m 2 min 0 min 526 W/m 25,7 km/h (4 Bft) 95,74 %
09.09.2022 11:56 20,0 C 21,1 C 16,7 C 72 % 1009,0 hPa 0,0 l/m 0 min 0 min 309 W/m 16,1 km/h (3 Bft) 97,87 %
09.09.2022 11:58 20,0 C 21,1 C 16,7 C 72 % 1009,0 hPa 0,0 l/m 2 min 0 min 337 W/m 32,2 km/h (5 Bft) 97,87 %
09.09.2022 12:00 20,1 C 21,1 C 16,7 C 72 % 1008,9 hPa 0,0 l/m 2 min 0 min 386 W/m 12,9 km/h (3 Bft) 97,87 %
09.09.2022 12:02 20,1 C 20,6 C 16,7 C 71 % 1008,9 hPa 0,0 l/m 2 min 0 min 341 W/m 22,5 km/h (4 Bft) 97,87 %
09.09.2022 12:04 20,1 C 20,6 C 16,7 C 71 % 1008,9 hPa 0,0 l/m 0 min 0 min 279 W/m 16,1 km/h (3 Bft) 97,83 %
09.09.2022 12:07 20,1 C 19,4 C 16,1 C 71 % 1009,0 hPa 0,0 l/m 0 min 0 min 163 W/m 35,4 km/h (5 Bft) 97,83 %
09.09.2022 12:08 20,0 C 19,4 C 16,1 C 71 % 1009,0 hPa 0,0 l/m 0 min 0 min 177 W/m 35,4 km/h (5 Bft) 97,87 %
09.09.2022 12:10 19,9 C 19,4 C 15,6 C 71 % 1008,9 hPa 0,0 l/m 0 min 0 min 137 W/m 19,3 km/h (3 Bft) 100,00 %
09.09.2022 12:12 19,8 C 18,9 C 15,6 C 71 % 1008,8 hPa 0,0 l/m 0 min 0 min 95 W/m 22,5 km/h (4 Bft) 100,00 %
09.09.2022 12:14 19,7 C 18,9 C 15,6 C 71 % 1008,9 hPa 0,0 l/m 0 min 0 min 79 W/m 12,9 km/h (3 Bft) 100,00 %
09.09.2022 12:16 19,6 C 18,9 C 15,6 C 72 % 1008,9 hPa 0,0 l/m 0 min 0 min 97 W/m 16,1 km/h (3 Bft) 100,00 %
09.09.2022 12:18 19,6 C 18,9 C 15,0 C 73 % 1008,9 hPa 0,0 l/m 0 min 0 min 94 W/m 22,5 km/h (4 Bft) 97,87 %
09.09.2022 12:20 19,5 C 18,9 C 15,0 C 73 % 1008,9 hPa 0,0 l/m 0 min 0 min 89 W/m 29,0 km/h (5 Bft) 97,87 %
09.09.2022 12:22 19,4 C 18,9 C 15,0 C 73 % 1008,9 hPa 0,0 l/m 0 min 0 min 99 W/m 22,5 km/h (4 Bft) 100,00 %
09.09.2022 12:24 19,4 C 18,9 C 15,0 C 73 % 1008,9 hPa 0,0 l/m 0 min 0 min 91 W/m 25,7 km/h (4 Bft) 100,00 %
09.09.2022 12:26 19,3 C 18,9 C 15,0 C 73 % 1008,9 hPa 0,0 l/m 0 min 0 min 91 W/m 25,7 km/h (4 Bft) 100,00 %
09.09.2022 12:28 19,3 C 18,9 C 15,0 C 73 % 1008,9 hPa 0,0 l/m 0 min 0 min 121 W/m 22,5 km/h (4 Bft) 97,87 %
09.09.2022 12:30 19,4 C 18,9 C 15,0 C 73 % 1008,9 hPa 0,0 l/m 0 min 0 min 146 W/m 25,7 km/h (4 Bft) 97,87 %
09.09.2022 12:32 19,4 C 19,4 C 15,6 C 73 % 1008,9 hPa 0,0 l/m 0 min 0 min 213 W/m 22,5 km/h (4 Bft) 100,00 %
09.09.2022 12:34 19,4 C 19,4 C 15,6 C 73 % 1009,0 hPa 0,0 l/m 0 min 0 min 308 W/m 19,3 km/h (3 Bft) 100,00 %
09.09.2022 12:36 19,6 C 20,0 C 15,6 C 73 % 1008,8 hPa 0,0 l/m 2 min 0 min 355 W/m 25,7 km/h (4 Bft) 97,87 %
09.09.2022 12:38 19,7 C 20,6 C 16,1 C 73 % 1008,9 hPa 0,0 l/m 2 min 0 min 418 W/m 16,1 km/h (3 Bft) 97,87 %
09.09.2022 12:40 19,8 C 20,6 C 16,1 C 72 % 1008,8 hPa 0,0 l/m 2 min 0 min 348 W/m 16,1 km/h (3 Bft) 97,87 %
09.09.2022 12:42 19,9 C 20,0 C 16,1 C 72 % 1008,9 hPa 0,0 l/m 0 min 0 min 208 W/m 22,5 km/h (4 Bft) 97,87 %
09.09.2022 12:44 19,9 C 20,0 C 16,1 C 72 % 1008,8 hPa 0,0 l/m 0 min 0 min 122 W/m 22,5 km/h (4 Bft) 95,65 %
09.09.2022 12:46 19,9 C 19,4 C 16,1 C 72 % 1008,7 hPa 0,0 l/m 0 min 0 min 92 W/m 29,0 km/h (5 Bft) 97,87 %
09.09.2022 12:48 19,9 C 19,4 C 15,6 C 72 % 1008,8 hPa 0,0 l/m 0 min 0 min 87 W/m 32,2 km/h (5 Bft) 97,87 %
09.09.2022 12:50 19,9 C 19,4 C 15,6 C 71 % 1008,9 hPa 0,0 l/m 0 min 0 min 87 W/m 25,7 km/h (4 Bft) 97,87 %
09.09.2022 12:52 19,8 C 19,4 C 15,6 C 72 % 1008,8 hPa 0,0 l/m 0 min 0 min 130 W/m 22,5 km/h (4 Bft) 97,87 %
09.09.2022 12:54 19,8 C 19,4 C 15,6 C 71 % 1008,8 hPa 0,0 l/m 0 min 0 min 174 W/m 29,0 km/h (5 Bft) 97,87 %
09.09.2022 12:56 19,8 C 19,4 C 15,6 C 71 % 1008,8 hPa 0,0 l/m 0 min 0 min 196 W/m 25,7 km/h (4 Bft) 95,65 %
09.09.2022 12:58 19,8 C 19,4 C 15,6 C 71 % 1008,8 hPa 0,0 l/m 0 min 0 min 193 W/m 38,6 km/h (5 Bft) 97,87 %
09.09.2022 13:00 19,8 C 19,4 C 15,6 C 71 % 1008,8 hPa 0,0 l/m 0 min 0 min 197 W/m 29,0 km/h (5 Bft) 97,87 %
09.09.2022 13:02 19,8 C 19,4 C 16,1 C 71 % 1008,7 hPa 0,0 l/m 0 min 0 min 212 W/m 29,0 km/h (5 Bft) 97,87 %
09.09.2022 13:04 19,9 C 20,0 C 16,1 C 71 % 1008,8 hPa 0,0 l/m 0 min 0 min 217 W/m 22,5 km/h (4 Bft) 95,74 %
09.09.2022 13:06 19,9 C 20,0 C 16,1 C 71 % 1008,7 hPa 0,0 l/m 0 min 0 min 227 W/m 19,3 km/h (3 Bft) 97,87 %
09.09.2022 13:08 19,9 C 20,0 C 16,1 C 72 % 1008,7 hPa 0,0 l/m 0 min 0 min 210 W/m 19,3 km/h (3 Bft) 97,83 %
09.09.2022 13:10 20,0 C 20,0 C 16,1 C 72 % 1008,7 hPa 0,0 l/m 0 min 0 min 186 W/m 19,3 km/h (3 Bft) 95,74 %
09.09.2022 13:12 20,0 C 20,0 C 16,1 C 71 % 1008,7 hPa 0,0 l/m 0 min 0 min 204 W/m 19,3 km/h (3 Bft) 95,74 %
09.09.2022 13:14 20,1 C 20,0 C 16,1 C 71 % 1008,7 hPa 0,0 l/m 0 min 0 min 245 W/m 16,1 km/h (3 Bft) 93,62 %
09.09.2022 13:16 20,1 C 20,6 C 16,1 C 72 % 1008,7 hPa 0,0 l/m 0 min 0 min 272 W/m 41,8 km/h (6 Bft) 95,74 %
09.09.2022 13:18 20,1 C 20,0 C 16,1 C 70 % 1008,7 hPa 0,0 l/m 0 min 0 min 233 W/m 45,1 km/h (6 Bft) 95,74 %
09.09.2022 13:20 20,1 C 20,0 C 16,1 C 70 % 1008,7 hPa 0,0 l/m 0 min 0 min 255 W/m 19,3 km/h (3 Bft) 95,65 %
09.09.2022 13:22 20,1 C 20,0 C 16,1 C 70 % 1008,8 hPa 0,0 l/m 0 min 0 min 319 W/m 29,0 km/h (5 Bft) 95,74 %
09.09.2022 13:24 20,2 C 20,6 C 16,7 C 71 % 1008,7 hPa 0,0 l/m 2 min 0 min 366 W/m 29,0 km/h (5 Bft) 95,74 %
09.09.2022 13:26 20,2 C 20,6 C 16,7 C 70 % 1008,7 hPa 0,0 l/m 2 min 0 min 374 W/m 29,0 km/h (5 Bft) 91,49 %
09.09.2022 13:28 20,2 C 20,6 C 16,7 C 70 % 1008,7 hPa 0,0 l/m 0 min 0 min 337 W/m 16,1 km/h (3 Bft) 95,74 %
09.09.2022 13:30 20,2 C 20,6 C 16,1 C 70 % 1008,8 hPa 0,0 l/m 0 min 0 min 322 W/m 29,0 km/h (5 Bft) 95,74 %
09.09.2022 13:32 20,2 C 20,6 C 16,7 C 70 % 1008,7 hPa 0,0 l/m 2 min 0 min 412 W/m 38,6 km/h (5 Bft) 95,65 %
09.09.2022 13:34 20,2 C 20,6 C 16,7 C 71 % 1008,7 hPa 0,0 l/m 2 min 0 min 387 W/m 22,5 km/h (4 Bft) 97,87 %
09.09.2022 13:36 20,3 C 21,1 C 16,7 C 71 % 1008,7 hPa 0,0 l/m 2 min 0 min 359 W/m 22,5 km/h (4 Bft) 97,87 %
09.09.2022 13:38 20,4 C 20,6 C 16,7 C 71 % 1008,7 hPa 0,0 l/m 0 min 0 min 325 W/m 35,4 km/h (5 Bft) 97,87 %
09.09.2022 13:40 20,4 C 20,6 C 16,7 C 71 % 1008,7 hPa 0,0 l/m 0 min 0 min 274 W/m 22,5 km/h (4 Bft) 97,87 %
09.09.2022 13:42 20,4 C 20,0 C 16,7 C 71 % 1008,7 hPa 0,0 l/m 0 min 0 min 235 W/m 22,5 km/h (4 Bft) 95,74 %
09.09.2022 13:44 20,3 C 20,0 C 16,1 C 71 % 1008,7 hPa 0,0 l/m 0 min 0 min 172 W/m 35,4 km/h (5 Bft) 100,00 %
09.09.2022 13:46 20,3 C 20,0 C 16,1 C 71 % 1008,7 hPa 0,0 l/m 0 min 0 min 178 W/m 25,7 km/h (4 Bft) 100,00 %
09.09.2022 13:48 20,3 C 20,0 C 16,1 C 71 % 1008,7 hPa 0,0 l/m 0 min 0 min 165 W/m 29,0 km/h (5 Bft) 100,00 %
09.09.2022 13:50 20,2 C 19,4 C 16,1 C 71 % 1008,8 hPa 0,0 l/m 0 min 0 min 163 W/m 38,6 km/h (5 Bft) 100,00 %
09.09.2022 13:52 20,1 C 19,4 C 16,1 C 71 % 1008,9 hPa 0,0 l/m 0 min 0 min 177 W/m 32,2 km/h (5 Bft) 100,00 %
09.09.2022 13:54 20,1 C 19,4 C 15,6 C 71 % 1008,8 hPa 0,0 l/m 0 min 2 min 180 W/m 45,1 km/h (6 Bft) 97,37 %
09.09.2022 13:56 19,9 C 20,6 C 15,6 C 73 % 1008,8 hPa 0,0 l/m 0 min 2 min 230 W/m 41,8 km/h (6 Bft) 97,87 %
09.09.2022 13:58 20,0 C 21,7 C 15,6 C 73 % 1008,8 hPa 0,0 l/m 0 min 0 min 230 W/m 38,6 km/h (5 Bft) 95,74 %
09.09.2022 14:00 20,1 C 22,8 C 16,1 C 73 % 1008,8 hPa 0,0 l/m 2 min 0 min 420 W/m 38,6 km/h (5 Bft) 97,87 %
09.09.2022 14:02 20,1 C 21,1 C 16,1 C 72 % 1008,8 hPa 0,0 l/m 2 min 0 min 405 W/m 22,5 km/h (4 Bft) 93,62 %
09.09.2022 14:04 20,1 C 20,0 C 16,1 C 72 % 1008,8 hPa 0,0 l/m 0 min 0 min 154 W/m 38,6 km/h (5 Bft) 95,74 %
09.09.2022 14:06 20,1 C 19,4 C 15,6 C 72 % 1008,8 hPa 0,2 l/m 0 min 0 min 128 W/m 29,0 km/h (5 Bft) 98,31 %
09.09.2022 14:08 19,9 C 19,4 C 15,6 C 72 % 1008,8 hPa 0,0 l/m 0 min 0 min 112 W/m 19,3 km/h (3 Bft) 97,14 %
09.09.2022 14:10 19,9 C 19,4 C 15,6 C 73 % 1008,8 hPa 0,0 l/m 0 min 0 min 88 W/m 25,7 km/h (4 Bft) 97,87 %
09.09.2022 14:12 19,8 C 18,9 C 15,6 C 73 % 1008,8 hPa 0,0 l/m 0 min 0 min 91 W/m 16,1 km/h (3 Bft) 95,74 %
09.09.2022 14:14 19,8 C 18,9 C 15,6 C 73 % 1008,8 hPa 0,0 l/m 0 min 0 min 124 W/m 19,3 km/h (3 Bft) 97,87 %
09.09.2022 14:16 19,7 C 18,9 C 15,0 C 75 % 1008,9 hPa 0,0 l/m 0 min 0 min 141 W/m 19,3 km/h (3 Bft) 95,65 %
09.09.2022 14:18 19,6 C 18,9 C 15,0 C 76 % 1008,9 hPa 0,0 l/m 0 min 0 min 145 W/m 12,9 km/h (3 Bft) 97,87 %
09.09.2022 14:20 19,4 C 18,3 C 13,9 C 76 % 1009,0 hPa 0,0 l/m 0 min 2 min 154 W/m 29,0 km/h (5 Bft) 97,87 %
09.09.2022 14:22 19,2 C 16,7 C 12,8 C 80 % 1009,0 hPa 0,2 l/m 0 min 2 min 135 W/m 19,3 km/h (3 Bft) 97,87 %
09.09.2022 14:24 19,1 C 16,7 C 12,8 C 82 % 1009,0 hPa 0,0 l/m 0 min 2 min 122 W/m 12,9 km/h (3 Bft) 95,74 %
09.09.2022 14:26 18,9 C 16,7 C 12,2 C 83 % 1009,0 hPa 0,0 l/m 0 min 0 min 114 W/m 12,9 km/h (3 Bft) 97,87 %
09.09.2022 14:28 18,7 C 16,7 C 12,2 C 84 % 1009,0 hPa 0,0 l/m 0 min 0 min 97 W/m 22,5 km/h (4 Bft) 97,83 %
09.09.2022 14:30 18,6 C 16,7 C 12,2 C 84 % 1009,2 hPa 0,0 l/m 0 min 2 min 92 W/m 29,0 km/h (5 Bft) 93,62 %
09.09.2022 14:32 18,4 C 16,7 C 12,2 C 85 % 1009,1 hPa 0,2 l/m 0 min 2 min 91 W/m 22,5 km/h (4 Bft) 97,87 %
09.09.2022 14:34 18,3 C 16,7 C 12,2 C 86 % 1009,1 hPa 0,0 l/m 0 min 2 min 77 W/m 12,9 km/h (3 Bft) 97,87 %
09.09.2022 14:36 18,1 C 16,1 C 11,7 C 86 % 1009,1 hPa 0,4 l/m 0 min 2 min 66 W/m 19,3 km/h (3 Bft) 97,87 %
09.09.2022 14:38 17,8 C 15,6 C 11,7 C 87 % 1009,2 hPa 0,6 l/m 0 min 2 min 73 W/m 22,5 km/h (4 Bft) 97,83 %
09.09.2022 14:40 17,6 C 15,6 C 11,7 C 88 % 1009,2 hPa 0,6 l/m 0 min 2 min 73 W/m 19,3 km/h (3 Bft) 97,87 %
09.09.2022 14:42 17,4 C 15,6 C 11,7 C 89 % 1009,1 hPa 0,4 l/m 0 min 2 min 88 W/m 16,1 km/h (3 Bft) 97,87 %
09.09.2022 14:44 17,3 C 15,0 C 11,7 C 89 % 1009,0 hPa 0,0 l/m 0 min 2 min 116 W/m 16,1 km/h (3 Bft) 100,00 %
09.09.2022 14:46 17,1 C 15,6 C 11,7 C 90 % 1009,1 hPa 0,0 l/m 0 min 2 min 111 W/m 22,5 km/h (4 Bft) 100,00 %
09.09.2022 14:48 17,1 C 15,6 C 11,7 C 90 % 1009,1 hPa 0,0 l/m 0 min 2 min 104 W/m 16,1 km/h (3 Bft) 100,00 %
09.09.2022 14:50 16,9 C 15,6 C 11,7 C 91 % 1009,1 hPa 0,0 l/m 0 min 2 min 112 W/m 16,1 km/h (3 Bft) 100,00 %
09.09.2022 14:52 16,8 C 15,6 C 11,7 C 91 % 1009,1 hPa 0,2 l/m 0 min 2 min 163 W/m 29,0 km/h (5 Bft) 97,87 %
09.09.2022 14:54 16,8 C 15,6 C 11,7 C 92 % 1009,1 hPa 0,0 l/m 0 min 2 min 300 W/m 19,3 km/h (3 Bft) 100,00 %
09.09.2022 14:56 16,8 C 16,1 C 12,2 C 92 % 1009,0 hPa 0,0 l/m 2 min 0 min 395 W/m 25,7 km/h (4 Bft) 97,87 %
09.09.2022 14:58 16,9 C 16,7 C 12,2 C 93 % 1009,0 hPa 0,0 l/m 2 min 0 min 413 W/m 22,5 km/h (4 Bft) 95,74 %
09.09.2022 15:00 16,9 C 16,7 C 12,8 C 93 % 1009,0 hPa 0,0 l/m 2 min 0 min 412 W/m 22,5 km/h (4 Bft) 100,00 %
09.09.2022 15:02 17,1 C 17,2 C 12,8 C 93 % 1008,9 hPa 0,0 l/m 2 min 0 min 410 W/m 22,5 km/h (4 Bft) 97,83 %
09.09.2022 15:04 17,1 C 17,2 C 12,8 C 94 % 1008,9 hPa 0,0 l/m 0 min 0 min 307 W/m 25,7 km/h (4 Bft) 100,00 %
09.09.2022 15:06 17,2 C 17,2 C 12,8 C 94 % 1008,8 hPa 0,0 l/m 0 min 0 min 304 W/m 22,5 km/h (4 Bft) 97,87 %
09.09.2022 15:08 17,2 C 18,3 C 12,8 C 94 % 1008,8 hPa 0,0 l/m 2 min 0 min 526 W/m 16,1 km/h (3 Bft) 97,87 %
09.09.2022 15:10 17,4 C 19,4 C 12,8 C 94 % 1008,8 hPa 0,0 l/m 2 min 0 min 865 W/m 16,1 km/h (3 Bft) 97,87 %
09.09.2022 15:12 17,6 C 19,4 C 12,8 C 94 % 1008,7 hPa 0,0 l/m 2 min 0 min 651 W/m 25,7 km/h (4 Bft) 97,87 %
09.09.2022 15:14 17,7 C 19,4 C 12,8 C 94 % 1008,7 hPa 0,0 l/m 2 min 0 min 457 W/m 22,5 km/h (4 Bft) 97,87 %
09.09.2022 15:16 17,8 C 19,4 C 12,8 C 94 % 1008,7 hPa 0,0 l/m 2 min 0 min 457 W/m 16,1 km/h (3 Bft) 97,83 %
09.09.2022 15:18 17,9 C 19,4 C 12,8 C 94 % 1008,7 hPa 0,0 l/m 2 min 0 min 470 W/m 19,3 km/h (3 Bft) 97,87 %
09.09.2022 15:20 17,9 C 19,4 C 12,8 C 94 % 1008,7 hPa 0,0 l/m 2 min 0 min 538 W/m 12,9 km/h (3 Bft) 97,87 %
09.09.2022 15:22 18,0 C 19,4 C 12,8 C 94 % 1008,6 hPa 0,0 l/m 2 min 0 min 533 W/m 16,1 km/h (3 Bft) 97,87 %
09.09.2022 15:24 18,0 C 18,9 C 12,8 C 93 % 1008,7 hPa 0,0 l/m 2 min 0 min 340 W/m 22,5 km/h (4 Bft) 95,74 %
09.09.2022 15:26 18,1 C 18,9 C 12,8 C 93 % 1008,6 hPa 0,0 l/m 2 min 0 min 398 W/m 19,3 km/h (3 Bft) 97,87 %
09.09.2022 15:28 18,1 C 18,9 C 12,8 C 92 % 1008,6 hPa 0,0 l/m 2 min 0 min 376 W/m 16,1 km/h (3 Bft) 97,83 %
09.09.2022 15:30 18,2 C 19,4 C 12,8 C 92 % 1008,6 hPa 0,0 l/m 0 min 0 min 299 W/m 16,1 km/h (3 Bft) 97,87 %
09.09.2022 15:32 18,4 C 20,0 C 13,3 C 92 % 1008,6 hPa 0,0 l/m 2 min 0 min 372 W/m 12,9 km/h (3 Bft) 97,87 %
09.09.2022 15:34 18,4 C 20,6 C 12,8 C 92 % 1008,6 hPa 0,0 l/m 2 min 0 min 629 W/m 22,5 km/h (4 Bft) 95,74 %
09.09.2022 15:36 18,6 C 20,6 C 12,8 C 91 % 1008,5 hPa 0,0 l/m 2 min 0 min 766 W/m 25,7 km/h (4 Bft) 97,87 %
09.09.2022 15:38 18,7 C 21,1 C 12,8 C 90 % 1008,5 hPa 0,0 l/m 2 min 0 min 765 W/m 22,5 km/h (4 Bft) 97,83 %
09.09.2022 15:40 18,8 C 20,0 C 12,8 C 90 % 1008,5 hPa 0,0 l/m 2 min 0 min 741 W/m 22,5 km/h (4 Bft) 97,87 %
09.09.2022 15:42 18,9 C 20,0 C 12,8 C 89 % 1008,4 hPa 0,0 l/m 0 min 0 min 167 W/m 9,7 km/h (2 Bft) 95,74 %
09.09.2022 15:44 18,9 C 19,4 C 12,8 C 88 % 1008,4 hPa 0,0 l/m 0 min 0 min 198 W/m 22,5 km/h (4 Bft) 97,87 %
09.09.2022 15:46 18,9 C 19,4 C 12,8 C 88 % 1008,4 hPa 0,0 l/m 0 min 0 min 241 W/m 16,1 km/h (3 Bft) 100,00 %
09.09.2022 15:48 19,0 C 20,0 C 12,8 C 87 % 1008,4 hPa 0,0 l/m 2 min 0 min 388 W/m 12,9 km/h (3 Bft) 100,00 %
09.09.2022 15:50 19,1 C 20,6 C 13,3 C 88 % 1008,4 hPa 0,0 l/m 2 min 0 min 787 W/m 19,3 km/h (3 Bft) 97,83 %
09.09.2022 15:52 19,3 C 21,1 C 13,3 C 88 % 1008,4 hPa 0,0 l/m 2 min 0 min 586 W/m 12,9 km/h (3 Bft) 96,36 %
09.09.2022 15:54 19,5 C 21,1 C 13,3 C 87 % 1008,4 hPa 0,0 l/m 2 min 0 min 583 W/m 19,3 km/h (3 Bft) 97,87 %
09.09.2022 15:56 19,6 C 20,6 C 13,3 C 86 % 1008,4 hPa 0,0 l/m 2 min 0 min 559 W/m 25,7 km/h (4 Bft) 97,83 %
09.09.2022 15:58 19,7 C 20,6 C 12,8 C 85 % 1008,4 hPa 0,0 l/m 2 min 0 min 522 W/m 12,9 km/h (3 Bft) 97,87 %
09.09.2022 16:00 19,8 C 20,6 C 13,3 C 85 % 1008,4 hPa 0,0 l/m 2 min 0 min 593 W/m 19,3 km/h (3 Bft) 97,87 %
09.09.2022 16:02 19,9 C 20,6 C 13,3 C 84 % 1008,3 hPa 0,0 l/m 2 min 0 min 552 W/m 22,5 km/h (4 Bft) 97,87 %
09.09.2022 16:04 19,9 C 20,0 C 12,8 C 83 % 1008,4 hPa 0,0 l/m 2 min 0 min 554 W/m 22,5 km/h (4 Bft) 97,87 %
09.09.2022 16:06 19,9 C 19,4 C 12,8 C 82 % 1008,4 hPa 0,0 l/m 2 min 0 min 425 W/m 19,3 km/h (3 Bft) 97,87 %
09.09.2022 16:08 19,9 C 19,4 C 12,8 C 82 % 1008,4 hPa 0,0 l/m 0 min 0 min 64 W/m 16,1 km/h (3 Bft) 97,83 %
09.09.2022 16:10 19,8 C 18,9 C 12,8 C 82 % 1008,5 hPa 0,0 l/m 0 min 0 min 41 W/m 12,9 km/h (3 Bft) 97,87 %
09.09.2022 16:12 19,7 C 18,3 C 12,8 C 82 % 1008,5 hPa 0,0 l/m 0 min 0 min 30 W/m 19,3 km/h (3 Bft) 95,74 %
09.09.2022 16:14 19,7 C 18,3 C 12,8 C 83 % 1008,6 hPa 0,0 l/m 0 min 2 min 17 W/m 12,9 km/h (3 Bft) 97,87 %
09.09.2022 16:16 19,3 C 15,6 C 12,2 C 83 % 1008,9 hPa 1,0 l/m 0 min 2 min 10 W/m 29,0 km/h (5 Bft) 97,87 %
09.09.2022 16:18 18,7 C 15,0 C 11,7 C 84 % 1008,8 hPa 0,4 l/m 0 min 2 min 13 W/m 22,5 km/h (4 Bft) 97,87 %
09.09.2022 16:20 18,1 C 14,4 C 11,1 C 84 % 1008,9 hPa 0,2 l/m 0 min 2 min 16 W/m 19,3 km/h (3 Bft) 97,83 %
09.09.2022 16:22 17,6 C 14,4 C 11,1 C 85 % 1009,0 hPa 0,2 l/m 0 min 2 min 17 W/m 16,1 km/h (3 Bft) 95,74 %
09.09.2022 16:24 17,3 C 14,4 C 11,1 C 87 % 1008,9 hPa 0,0 l/m 0 min 2 min 19 W/m 12,9 km/h (3 Bft) 97,87 %
09.09.2022 16:26 17,1 C 14,4 C 11,1 C 87 % 1008,9 hPa 0,2 l/m 0 min 2 min 19 W/m 9,7 km/h (2 Bft) 97,87 %
09.09.2022 16:28 17,0 C 14,4 C 11,1 C 88 % 1008,9 hPa 0,0 l/m 0 min 2 min 20 W/m 9,7 km/h (2 Bft) 97,87 %
09.09.2022 16:30 16,8 C 14,4 C 11,1 C 89 % 1009,0 hPa 0,0 l/m 0 min 0 min 20 W/m 12,9 km/h (3 Bft) 97,87 %
09.09.2022 16:32 16,6 C 14,4 C 11,1 C 89 % 1009,0 hPa 0,0 l/m 0 min 0 min 19 W/m 16,1 km/h (3 Bft) 97,83 %
09.09.2022 16:34 16,4 C 14,4 C 11,1 C 89 % 1008,9 hPa 0,0 l/m 0 min 0 min 21 W/m 9,7 km/h (2 Bft) 97,87 %
09.09.2022 16:36 16,3 C 14,4 C 11,1 C 90 % 1008,9 hPa 0,0 l/m 0 min 2 min 22 W/m 9,7 km/h (2 Bft) 97,87 %
09.09.2022 16:38 16,3 C 14,4 C 11,1 C 90 % 1008,9 hPa 0,2 l/m 0 min 2 min 25 W/m 19,3 km/h (3 Bft) 95,74 %
09.09.2022 16:40 16,2 C 14,4 C 11,1 C 90 % 1008,9 hPa 0,0 l/m 0 min 2 min 28 W/m 12,9 km/h (3 Bft) 95,74 %
09.09.2022 16:42 16,1 C 14,4 C 10,6 C 91 % 1008,8 hPa 0,2 l/m 0 min 2 min 25 W/m 16,1 km/h (3 Bft) 95,74 %
09.09.2022 16:44 16,0 C 14,4 C 11,1 C 91 % 1008,8 hPa 0,0 l/m 0 min 2 min 24 W/m 12,9 km/h (3 Bft) 93,48 %
09.09.2022 16:46 15,9 C 14,4 C 11,1 C 91 % 1008,7 hPa 0,0 l/m 0 min 2 min 23 W/m 16,1 km/h (3 Bft) 93,62 %
09.09.2022 16:48 15,9 C 14,4 C 11,1 C 92 % 1008,7 hPa 0,2 l/m 0 min 2 min 25 W/m 12,9 km/h (3 Bft) 95,74 %
09.09.2022 16:50 15,8 C 14,4 C 11,1 C 92 % 1008,7 hPa 0,0 l/m 0 min 2 min 30 W/m 12,9 km/h (3 Bft) 97,87 %
09.09.2022 16:52 15,8 C 14,4 C 11,1 C 92 % 1008,7 hPa 0,0 l/m 0 min 2 min 36 W/m 12,9 km/h (3 Bft) 95,74 %
09.09.2022 16:54 15,8 C 14,4 C 11,1 C 93 % 1008,6 hPa 0,0 l/m 0 min 2 min 49 W/m 16,1 km/h (3 Bft) 95,74 %
09.09.2022 16:56 15,8 C 14,4 C 11,1 C 93 % 1008,5 hPa 0,0 l/m 0 min 2 min 65 W/m 6,4 km/h (2 Bft) 97,83 %
09.09.2022 16:58 15,8 C 14,4 C 11,1 C 93 % 1008,5 hPa 0,0 l/m 0 min 2 min 79 W/m 9,7 km/h (2 Bft) 97,87 %
09.09.2022 17:00 15,8 C 14,4 C 11,1 C 93 % 1008,5 hPa 0,0 l/m 0 min 0 min 92 W/m 9,7 km/h (2 Bft) 93,62 %
09.09.2022 17:02 15,8 C 14,4 C 11,1 C 93 % 1008,5 hPa 0,0 l/m 0 min 0 min 102 W/m 6,4 km/h (2 Bft) 95,74 %
09.09.2022 17:04 15,8 C 15,0 C 11,1 C 93 % 1008,5 hPa 0,0 l/m 0 min 0 min 112 W/m 9,7 km/h (2 Bft) 97,87 %
09.09.2022 17:06 15,8 C 15,0 C 11,1 C 93 % 1008,4 hPa 0,0 l/m 0 min 0 min 121 W/m 6,4 km/h (2 Bft) 97,87 %
09.09.2022 17:08 15,9 C 15,0 C 11,1 C 94 % 1008,4 hPa 0,0 l/m 0 min 0 min 133 W/m 6,4 km/h (2 Bft) 97,83 %
09.09.2022 17:10 15,9 C 15,0 C 11,1 C 94 % 1008,3 hPa 0,0 l/m 0 min 0 min 146 W/m 6,4 km/h (2 Bft) 95,74 %
09.09.2022 17:12 15,9 C 15,6 C 11,1 C 94 % 1008,3 hPa 0,0 l/m 0 min 0 min 188 W/m 6,4 km/h (2 Bft) 97,87 %
09.09.2022 17:14 15,9 C 15,6 C 11,1 C 94 % 1008,3 hPa 0,0 l/m 2 min 0 min 236 W/m 6,4 km/h (2 Bft) 97,87 %
09.09.2022 17:16 15,9 C 15,6 C 11,1 C 94 % 1008,3 hPa 0,0 l/m 2 min 0 min 249 W/m 6,4 km/h (2 Bft) 95,74 %
09.09.2022 17:18 15,9 C 16,1 C 11,7 C 94 % 1008,3 hPa 0,0 l/m 2 min 0 min 222 W/m 6,4 km/h (2 Bft) 95,65 %
09.09.2022 17:20 15,9 C 16,1 C 11,7 C 94 % 1008,3 hPa 0,0 l/m 2 min 0 min 226 W/m 6,4 km/h (2 Bft) 93,62 %
09.09.2022 17:22 16,0 C 16,1 C 11,7 C 94 % 1008,3 hPa 0,0 l/m 2 min 0 min 232 W/m 3,2 km/h (1 Bft) 93,62 %
09.09.2022 17:24 16,1 C 16,7 C 11,7 C 94 % 1008,3 hPa 0,0 l/m 2 min 0 min 231 W/m 3,2 km/h (1 Bft) 95,74 %
09.09.2022 17:26 16,1 C 16,7 C 11,7 C 95 % 1008,3 hPa 0,0 l/m 2 min 0 min 229 W/m 3,2 km/h (1 Bft) 97,87 %
09.09.2022 17:28 16,2 C 16,7 C 12,2 C 95 % 1008,3 hPa 0,0 l/m 2 min 0 min 220 W/m 3,2 km/h (1 Bft) 95,74 %
09.09.2022 17:30 16,3 C 16,7 C 12,2 C 95 % 1008,3 hPa 0,0 l/m 2 min 0 min 220 W/m 3,2 km/h (1 Bft) 97,87 %
09.09.2022 17:32 16,3 C 16,7 C 12,2 C 95 % 1008,3 hPa 0,0 l/m 2 min 0 min 221 W/m 6,4 km/h (2 Bft) 93,48 %
09.09.2022 17:34 16,4 C 17,2 C 12,2 C 95 % 1008,3 hPa 0,0 l/m 2 min 0 min 236 W/m 6,4 km/h (2 Bft) 95,74 %
09.09.2022 17:36 16,4 C 17,8 C 12,2 C 95 % 1008,3 hPa 0,0 l/m 2 min 0 min 273 W/m 3,2 km/h (1 Bft) 97,87 %
09.09.2022 17:38 16,6 C 18,3 C 12,2 C 95 % 1008,3 hPa 0,0 l/m 2 min 0 min 347 W/m 9,7 km/h (2 Bft) 95,74 %
09.09.2022 17:40 16,7 C 17,8 C 12,2 C 95 % 1008,3 hPa 0,0 l/m 2 min 0 min 234 W/m 6,4 km/h (2 Bft) 97,87 %
09.09.2022 17:42 16,8 C 17,8 C 12,2 C 95 % 1008,3 hPa 0,0 l/m 2 min 0 min 218 W/m 6,4 km/h (2 Bft) 97,83 %
09.09.2022 17:44 16,8 C 17,8 C 12,2 C 95 % 1008,3 hPa 0,0 l/m 2 min 0 min 203 W/m 12,9 km/h (3 Bft) 97,87 %
09.09.2022 17:46 16,9 C 17,8 C 12,8 C 95 % 1008,3 hPa 0,0 l/m 2 min 0 min 190 W/m 12,9 km/h (3 Bft) 100,00 %
09.09.2022 17:48 16,9 C 17,8 C 12,2 C 94 % 1008,3 hPa 0,0 l/m 2 min 0 min 186 W/m 6,4 km/h (2 Bft) 100,00 %
09.09.2022 17:50 17,1 C 17,8 C 12,2 C 94 % 1008,3 hPa 0,0 l/m 2 min 0 min 205 W/m 6,4 km/h (2 Bft) 100,00 %
09.09.2022 17:52 17,1 C 18,3 C 12,2 C 94 % 1008,3 hPa 0,0 l/m 2 min 0 min 238 W/m 16,1 km/h (3 Bft) 100,00 %
09.09.2022 17:54 17,2 C 18,9 C 12,8 C 94 % 1008,4 hPa 0,0 l/m 2 min 0 min 236 W/m 12,9 km/h (3 Bft) 100,00 %
09.09.2022 17:56 17,3 C 18,9 C 12,2 C 94 % 1008,3 hPa 0,0 l/m 2 min 0 min 252 W/m 12,9 km/h (3 Bft) 97,87 %
09.09.2022 17:58 17,3 C 18,9 C 12,2 C 93 % 1008,4 hPa 0,0 l/m 2 min 0 min 214 W/m 12,9 km/h (3 Bft) 100,00 %
09.09.2022 18:00 17,4 C 18,3 C 12,8 C 93 % 1008,4 hPa 0,0 l/m 2 min 0 min 186 W/m 6,4 km/h (2 Bft) 100,00 %
09.09.2022 18:02 17,5 C 18,3 C 12,8 C 93 % 1008,4 hPa 0,0 l/m 2 min 0 min 158 W/m 16,1 km/h (3 Bft) 97,87 %
09.09.2022 18:04 17,6 C 18,3 C 12,8 C 93 % 1008,4 hPa 0,0 l/m 0 min 0 min 134 W/m 6,4 km/h (2 Bft) 100,00 %
09.09.2022 18:08 17,6 C 17,8 C 12,2 C 92 % 1008,4 hPa 0,0 l/m 0 min 0 min 118 W/m 12,9 km/h (3 Bft) 100,00 %
09.09.2022 18:10 17,7 C 17,2 C 12,2 C 92 % 1008,5 hPa 0,0 l/m 0 min 0 min 95 W/m 16,1 km/h (3 Bft) 100,00 %
09.09.2022 18:12 17,7 C 17,2 C 12,2 C 92 % 1008,5 hPa 0,0 l/m 0 min 0 min 94 W/m 12,9 km/h (3 Bft) 100,00 %
09.09.2022 18:14 17,7 C 17,2 C 12,2 C 92 % 1008,5 hPa 0,0 l/m 0 min 0 min 134 W/m 12,9 km/h (3 Bft) 100,00 %
09.09.2022 18:16 17,7 C 17,8 C 12,2 C 91 % 1008,4 hPa 0,0 l/m 2 min 0 min 196 W/m 6,4 km/h (2 Bft) 100,00 %
09.09.2022 18:18 17,7 C 18,9 C 12,2 C 92 % 1008,4 hPa 0,0 l/m 2 min 0 min 279 W/m 12,9 km/h (3 Bft) 100,00 %
09.09.2022 18:20 17,8 C 18,9 C 12,2 C 92 % 1008,4 hPa 0,0 l/m 2 min 0 min 272 W/m 6,4 km/h (2 Bft) 100,00 %
09.09.2022 18:22 17,8 C 18,9 C 12,8 C 92 % 1008,5 hPa 0,0 l/m 2 min 0 min 201 W/m 9,7 km/h (2 Bft) 100,00 %
09.09.2022 18:24 17,8 C 18,9 C 12,8 C 92 % 1008,5 hPa 0,0 l/m 0 min 0 min 87 W/m 9,7 km/h (2 Bft) 100,00 %
09.09.2022 18:26 17,8 C 18,9 C 12,2 C 91 % 1008,5 hPa 0,0 l/m 2 min 0 min 160 W/m 12,9 km/h (3 Bft) 97,87 %
09.09.2022 18:28 17,9 C 18,9 C 12,8 C 91 % 1008,5 hPa 0,0 l/m 2 min 0 min 170 W/m 12,9 km/h (3 Bft) 97,87 %
09.09.2022 18:30 17,9 C 18,9 C 12,2 C 91 % 1008,6 hPa 0,0 l/m 0 min 0 min 86 W/m 12,9 km/h (3 Bft) 100,00 %
09.09.2022 18:32 17,9 C 18,3 C 12,2 C 91 % 1008,6 hPa 0,0 l/m 0 min 0 min 102 W/m 6,4 km/h (2 Bft) 100,00 %
09.09.2022 18:34 17,9 C 18,3 C 12,8 C 91 % 1008,6 hPa 0,0 l/m 2 min 2 min 148 W/m 6,4 km/h (2 Bft) 100,00 %
09.09.2022 18:36 17,9 C 19,4 C 12,8 C 91 % 1008,5 hPa 0,0 l/m 2 min 0 min 207 W/m 12,9 km/h (3 Bft) 100,00 %
09.09.2022 18:38 18,0 C 18,9 C 12,8 C 91 % 1008,5 hPa 0,0 l/m 2 min 0 min 213 W/m 16,1 km/h (3 Bft) 97,87 %
09.09.2022 18:40 18,0 C 18,9 C 12,8 C 91 % 1008,5 hPa 0,0 l/m 2 min 0 min 128 W/m 25,7 km/h (4 Bft) 100,00 %
09.09.2022 18:42 18,0 C 18,9 C 12,8 C 91 % 1008,5 hPa 0,0 l/m 2 min 0 min 188 W/m 6,4 km/h (2 Bft) 97,83 %
09.09.2022 18:44 18,0 C 18,9 C 12,8 C 91 % 1008,5 hPa 0,0 l/m 2 min 0 min 134 W/m 25,7 km/h (4 Bft) 100,00 %
09.09.2022 18:46 18,0 C 18,3 C 12,8 C 91 % 1008,5 hPa 0,0 l/m 2 min 0 min 119 W/m 12,9 km/h (3 Bft) 100,00 %
09.09.2022 18:48 17,9 C 17,8 C 12,8 C 91 % 1008,6 hPa 0,0 l/m 2 min 0 min 109 W/m 16,1 km/h (3 Bft) 97,87 %
09.09.2022 18:50 17,9 C 17,8 C 12,2 C 90 % 1008,5 hPa 0,0 l/m 2 min 0 min 113 W/m 22,5 km/h (4 Bft) 95,74 %
09.09.2022 18:52 17,9 C 17,8 C 12,2 C 90 % 1008,6 hPa 0,0 l/m 2 min 0 min 107 W/m 9,7 km/h (2 Bft) 97,87 %
09.09.2022 18:54 17,9 C 17,8 C 12,8 C 90 % 1008,6 hPa 0,0 l/m 2 min 0 min 95 W/m 6,4 km/h (2 Bft) 95,65 %
09.09.2022 18:56 17,9 C 17,2 C 12,8 C 91 % 1008,5 hPa 0,0 l/m 2 min 0 min 87 W/m 9,7 km/h (2 Bft) 95,74 %
09.09.2022 18:58 17,9 C 17,2 C 12,2 C 91 % 1008,6 hPa 0,0 l/m 2 min 0 min 79 W/m 12,9 km/h (3 Bft) 95,74 %
09.09.2022 19:00 17,9 C 17,2 C 12,2 C 91 % 1008,5 hPa 0,0 l/m 0 min 0 min 73 W/m 12,9 km/h (3 Bft) 97,87 %
09.09.2022 19:02 17,8 C 17,2 C 12,2 C 91 % 1008,6 hPa 0,0 l/m 0 min 0 min 70 W/m 6,4 km/h (2 Bft) 95,74 %
09.09.2022 19:04 17,8 C 17,2 C 12,2 C 90 % 1008,5 hPa 0,0 l/m 2 min 0 min 71 W/m 6,4 km/h (2 Bft) 97,87 %
09.09.2022 19:06 17,8 C 17,2 C 12,2 C 91 % 1008,5 hPa 0,0 l/m 2 min 0 min 69 W/m 6,4 km/h (2 Bft) 95,65 %
09.09.2022 19:08 17,8 C 17,2 C 12,2 C 91 % 1008,5 hPa 0,0 l/m 2 min 0 min 66 W/m 12,9 km/h (3 Bft) 95,74 %
09.09.2022 19:10 17,7 C 16,7 C 12,2 C 91 % 1008,6 hPa 0,0 l/m 0 min 0 min 62 W/m 12,9 km/h (3 Bft) 97,87 %
09.09.2022 19:12 17,7 C 16,7 C 12,2 C 91 % 1008,6 hPa 0,0 l/m 0 min 0 min 57 W/m 9,7 km/h (2 Bft) 95,74 %
09.09.2022 19:14 17,7 C 16,7 C 12,2 C 91 % 1008,6 hPa 0,0 l/m 0 min 0 min 51 W/m 6,4 km/h (2 Bft) 95,74 %
09.09.2022 19:16 17,7 C 16,7 C 12,2 C 91 % 1008,7 hPa 0,0 l/m 0 min 0 min 44 W/m 6,4 km/h (2 Bft) 95,74 %
09.09.2022 19:18 17,7 C 16,7 C 12,2 C 91 % 1008,7 hPa 0,0 l/m 0 min 0 min 42 W/m 3,2 km/h (1 Bft) 95,65 %
09.09.2022 19:20 17,7 C 16,7 C 12,2 C 91 % 1008,7 hPa 0,0 l/m 0 min 0 min 46 W/m 6,4 km/h (2 Bft) 95,74 %
09.09.2022 19:22 17,6 C 16,7 C 12,2 C 91 % 1008,7 hPa 0,0 l/m 2 min 0 min 49 W/m 12,9 km/h (3 Bft) 95,74 %
09.09.2022 19:24 17,6 C 16,7 C 12,2 C 91 % 1008,7 hPa 0,0 l/m 2 min 0 min 48 W/m 6,4 km/h (2 Bft) 93,62 %
09.09.2022 19:26 17,6 C 16,7 C 12,2 C 91 % 1008,7 hPa 0,0 l/m 2 min 0 min 44 W/m 16,1 km/h (3 Bft) 93,62 %
09.09.2022 19:28 17,5 C 16,7 C 12,2 C 91 % 1008,8 hPa 0,0 l/m 2 min 0 min 40 W/m 12,9 km/h (3 Bft) 91,49 %
09.09.2022 19:30 17,5 C 16,7 C 12,2 C 91 % 1008,8 hPa 0,0 l/m 0 min 0 min 35 W/m 6,4 km/h (2 Bft) 93,48 %
09.09.2022 19:32 17,5 C 16,7 C 12,2 C 91 % 1008,8 hPa 0,0 l/m 0 min 0 min 32 W/m 6,4 km/h (2 Bft) 93,62 %
09.09.2022 19:34 17,4 C 16,7 C 12,2 C 92 % 1008,8 hPa 0,0 l/m 0 min 0 min 27 W/m 6,4 km/h (2 Bft) 95,74 %
09.09.2022 19:36 17,4 C 16,1 C 12,2 C 92 % 1008,9 hPa 0,0 l/m 0 min 0 min 24 W/m 6,4 km/h (2 Bft) 95,74 %
09.09.2022 19:38 17,4 C 16,1 C 12,2 C 92 % 1008,9 hPa 0,0 l/m 0 min 0 min 21 W/m 3,2 km/h (1 Bft) 93,62 %
09.09.2022 19:40 17,4 C 16,1 C 12,2 C 92 % 1008,9 hPa 0,0 l/m 0 min 0 min 18 W/m 6,4 km/h (2 Bft) 95,65 %
09.09.2022 19:42 17,4 C 16,1 C 12,2 C 92 % 1008,9 hPa 0,0 l/m 0 min 0 min 15 W/m 12,9 km/h (3 Bft) 95,74 %
09.09.2022 19:44 17,3 C 16,1 C 12,2 C 92 % 1008,8 hPa 0,0 l/m 0 min 0 min 12 W/m 6,4 km/h (2 Bft) 95,74 %
09.09.2022 19:46 17,3 C 16,1 C 12,2 C 92 % 1008,9 hPa 0,0 l/m 0 min 0 min 11 W/m 3,2 km/h (1 Bft) 95,74 %
09.09.2022 19:48 17,3 C 16,1 C 12,2 C 92 % 1008,9 hPa 0,0 l/m 0 min 0 min 11 W/m 6,4 km/h (2 Bft) 97,87 %
09.09.2022 19:50 17,3 C 16,1 C 12,2 C 92 % 1008,9 hPa 0,0 l/m 0 min 0 min 9 W/m 3,2 km/h (1 Bft) 97,87 %
09.09.2022 19:52 17,3 C 16,1 C 12,2 C 92 % 1008,9 hPa 0,0 l/m 0 min 0 min 7 W/m 6,4 km/h (2 Bft) 97,83 %
09.09.2022 19:54 17,3 C 16,1 C 12,2 C 92 % 1009,0 hPa 0,0 l/m 0 min 0 min 7 W/m 12,9 km/h (3 Bft) 97,87 %
09.09.2022 19:56 17,2 C 16,1 C 12,2 C 92 % 1009,0 hPa 0,0 l/m 0 min 0 min 5 W/m 6,4 km/h (2 Bft) 95,74 %
09.09.2022 19:58 17,2 C 16,1 C 12,2 C 92 % 1009,1 hPa 0,0 l/m 0 min 0 min 2 W/m 6,4 km/h (2 Bft) 97,87 %
09.09.2022 20:00 17,2 C 16,1 C 12,2 C 92 % 1009,0 hPa 0,0 l/m 0 min 0 min 0 W/m 12,9 km/h (3 Bft) 97,87 %
09.09.2022 20:02 17,2 C 16,1 C 12,2 C 93 % 1009,1 hPa 0,0 l/m 0 min 0 min 0 W/m 19,3 km/h (3 Bft) 97,30 %
09.09.2022 20:04 17,1 C 16,1 C 11,7 C 93 % 1009,1 hPa 0,0 l/m 0 min 0 min 0 W/m 25,7 km/h (4 Bft) 97,87 %
09.09.2022 20:06 17,1 C 16,1 C 11,7 C 93 % 1009,2 hPa 0,0 l/m 0 min 0 min 0 W/m 12,9 km/h (3 Bft) 95,74 %
09.09.2022 20:08 17,1 C 16,1 C 11,7 C 93 % 1009,1 hPa 0,0 l/m 0 min 0 min 0 W/m 12,9 km/h (3 Bft) 97,87 %
09.09.2022 20:10 17,1 C 16,1 C 11,7 C 92 % 1009,2 hPa 0,0 l/m 0 min 0 min 0 W/m 6,4 km/h (2 Bft) 97,87 %
09.09.2022 20:12 17,0 C 16,1 C 11,7 C 92 % 1009,2 hPa 0,0 l/m 0 min 0 min 0 W/m 12,9 km/h (3 Bft) 97,83 %
09.09.2022 20:14 17,0 C 16,1 C 11,7 C 92 % 1009,2 hPa 0,0 l/m 0 min 0 min 0 W/m 12,9 km/h (3 Bft) 97,87 %
09.09.2022 20:16 17,0 C 16,1 C 11,7 C 92 % 1009,2 hPa 0,0 l/m 0 min 0 min 0 W/m 16,1 km/h (3 Bft) 100,00 %
09.09.2022 20:18 16,9 C 16,1 C 11,7 C 92 % 1009,1 hPa 0,0 l/m 0 min 0 min 0 W/m 6,4 km/h (2 Bft) 97,87 %
09.09.2022 20:20 16,9 C 16,1 C 11,7 C 92 % 1009,2 hPa 0,0 l/m 0 min 0 min 0 W/m 6,4 km/h (2 Bft) 100,00 %
09.09.2022 20:22 16,9 C 16,1 C 11,7 C 92 % 1009,2 hPa 0,0 l/m 0 min 0 min 0 W/m 6,4 km/h (2 Bft) 100,00 %
09.09.2022 20:24 16,9 C 16,1 C 11,7 C 92 % 1009,2 hPa 0,0 l/m 0 min 0 min 0 W/m 6,4 km/h (2 Bft) 100,00 %
09.09.2022 20:26 16,9 C 16,1 C 11,7 C 92 % 1009,2 hPa 0,0 l/m 0 min 0 min 0 W/m 25,7 km/h (4 Bft) 100,00 %
09.09.2022 20:28 16,9 C 16,1 C 11,7 C 92 % 1009,3 hPa 0,0 l/m 0 min 0 min 0 W/m 6,4 km/h (2 Bft) 97,87 %
09.09.2022 20:30 16,9 C 16,1 C 11,7 C 92 % 1009,3 hPa 0,0 l/m 0 min 0 min 0 W/m 12,9 km/h (3 Bft) 100,00 %
09.09.2022 20:32 16,9 C 16,1 C 11,7 C 92 % 1009,4 hPa 0,0 l/m 0 min 0 min 0 W/m 16,1 km/h (3 Bft) 100,00 %
09.09.2022 20:34 16,9 C 16,1 C 11,7 C 92 % 1009,4 hPa 0,0 l/m 0 min 0 min 0 W/m 9,7 km/h (2 Bft) 100,00 %
09.09.2022 20:36 16,9 C 16,1 C 11,7 C 92 % 1009,5 hPa 0,0 l/m 0 min 0 min 0 W/m 9,7 km/h (2 Bft) 45,95 %
09.09.2022 20:38 16,9 C 16,1 C 11,7 C 92 % 1009,4 hPa 0,0 l/m 0 min 0 min 0 W/m 12,9 km/h (3 Bft) 100,00 %
09.09.2022 20:40 16,9 C 16,1 C 11,7 C 92 % 1009,4 hPa 0,0 l/m 0 min 0 min 0 W/m 6,4 km/h (2 Bft) 97,87 %
09.09.2022 20:42 16,9 C 16,1 C 11,7 C 91 % 1009,4 hPa 0,0 l/m 0 min 0 min 0 W/m 9,7 km/h (2 Bft) 100,00 %
09.09.2022 20:44 16,9 C 16,1 C 11,7 C 91 % 1009,6 hPa 0,0 l/m 0 min 0 min 0 W/m 12,9 km/h (3 Bft) 100,00 %
09.09.2022 20:46 16,9 C 16,1 C 11,7 C 92 % 1009,7 hPa 0,0 l/m 0 min 0 min 0 W/m 6,4 km/h (2 Bft) 100,00 %
09.09.2022 20:48 16,9 C 16,1 C 11,7 C 92 % 1009,6 hPa 0,2 l/m 0 min 2 min 0 W/m 6,4 km/h (2 Bft) 100,00 %
09.09.2022 20:50 16,9 C 16,1 C 12,2 C 92 % 1009,6 hPa 0,0 l/m 0 min 2 min 0 W/m 6,4 km/h (2 Bft) 100,00 %
09.09.2022 20:52 17,0 C 16,1 C 11,7 C 92 % 1009,6 hPa 0,0 l/m 0 min 0 min 0 W/m 3,2 km/h (1 Bft) 100,00 %
09.09.2022 20:54 17,0 C 16,1 C 12,2 C 92 % 1009,5 hPa 0,0 l/m 0 min 0 min 0 W/m 3,2 km/h (1 Bft) 97,87 %
09.09.2022 20:56 17,0 C 16,1 C 12,2 C 92 % 1009,6 hPa 0,0 l/m 0 min 0 min 0 W/m 3,2 km/h (1 Bft) 97,87 %
09.09.2022 20:58 17,0 C 16,1 C 12,2 C 92 % 1009,7 hPa 0,0 l/m 0 min 0 min 0 W/m 6,4 km/h (2 Bft) 100,00 %
09.09.2022 21:00 17,0 C 16,1 C 11,7 C 92 % 1009,7 hPa 0,2 l/m 0 min 2 min 0 W/m 6,4 km/h (2 Bft) 100,00 %
09.09.2022 21:02 17,0 C 15,6 C 11,7 C 92 % 1009,7 hPa 0,0 l/m 0 min 2 min 0 W/m 6,4 km/h (2 Bft) 100,00 %
09.09.2022 21:04 16,9 C 15,6 C 11,7 C 92 % 1009,7 hPa 0,0 l/m 0 min 2 min 0 W/m 6,4 km/h (2 Bft) 95,74 %
09.09.2022 21:06 16,9 C 15,6 C 11,7 C 92 % 1009,6 hPa 0,6 l/m 0 min 2 min 0 W/m 3,2 km/h (1 Bft) 95,74 %
09.09.2022 21:08 16,8 C 15,6 C 11,7 C 93 % 1009,6 hPa 0,2 l/m 0 min 2 min 0 W/m 3,2 km/h (1 Bft) 100,00 %
09.09.2022 21:10 16,8 C 15,6 C 11,7 C 93 % 1009,7 hPa 0,2 l/m 0 min 2 min 0 W/m 3,2 km/h (1 Bft) 97,87 %
09.09.2022 21:12 16,8 C 15,6 C 11,7 C 93 % 1009,7 hPa 0,0 l/m 0 min 0 min 0 W/m 12,9 km/h (3 Bft) 97,83 %
09.09.2022 21:14 16,8 C 15,6 C 11,7 C 93 % 1009,7 hPa 0,0 l/m 0 min 0 min 0 W/m 3,2 km/h (1 Bft) 97,87 %
09.09.2022 21:16 16,8 C 15,6 C 11,7 C 93 % 1009,7 hPa 0,0 l/m 0 min 2 min 0 W/m 6,4 km/h (2 Bft) 96,00 %
09.09.2022 21:18 16,7 C 15,6 C 11,7 C 93 % 1009,7 hPa 0,0 l/m 0 min 0 min 0 W/m 6,4 km/h (2 Bft) 95,74 %
09.09.2022 21:20 16,7 C 15,6 C 11,7 C 93 % 1009,7 hPa 0,0 l/m 0 min 0 min 0 W/m 3,2 km/h (1 Bft) 97,87 %
09.09.2022 21:22 16,7 C 15,6 C 11,7 C 93 % 1009,7 hPa 0,0 l/m 0 min 2 min 0 W/m 6,4 km/h (2 Bft) 97,87 %
09.09.2022 21:24 16,6 C 15,0 C 11,7 C 93 % 1009,7 hPa 0,2 l/m 0 min 2 min 0 W/m 6,4 km/h (2 Bft) 95,65 %
09.09.2022 21:26 16,6 C 15,0 C 11,7 C 93 % 1009,8 hPa 0,0 l/m 0 min 2 min 0 W/m 3,2 km/h (1 Bft) 97,87 %
09.09.2022 21:28 16,6 C 15,0 C 11,7 C 94 % 1009,8 hPa 0,0 l/m 0 min 2 min 0 W/m 3,2 km/h (1 Bft) 97,87 %
09.09.2022 21:30 16,6 C 15,0 C 11,7 C 94 % 1009,8 hPa 0,0 l/m 0 min 0 min 0 W/m 0,0 km/h (0 Bft) 97,87 %
09.09.2022 21:32 16,6 C 15,0 C 11,7 C 94 % 1009,8 hPa 0,0 l/m 0 min 0 min 0 W/m 0,0 km/h (0 Bft) 95,74 %
09.09.2022 21:34 16,6 C 15,0 C 11,7 C 94 % 1009,9 hPa 0,0 l/m 0 min 0 min 0 W/m 0,0 km/h (0 Bft) 95,74 %
09.09.2022 21:36 16,6 C 15,0 C 11,7 C 94 % 1009,9 hPa 0,0 l/m 0 min 2 min 0 W/m 3,2 km/h (1 Bft) 95,65 %
09.09.2022 21:38 16,6 C 15,0 C 11,7 C 94 % 1009,9 hPa 0,0 l/m 0 min 2 min 0 W/m 6,4 km/h (2 Bft) 95,74 %
09.09.2022 21:40 16,5 C 15,6 C 11,7 C 94 % 1009,9 hPa 0,0 l/m 0 min 2 min 0 W/m 19,3 km/h (3 Bft) 95,74 %
09.09.2022 21:42 16,4 C 15,0 C 11,7 C 94 % 1010,0 hPa 0,0 l/m 0 min 2 min 0 W/m 9,7 km/h (2 Bft) 97,87 %
09.09.2022 21:44 16,4 C 15,6 C 11,7 C 94 % 1010,0 hPa 0,0 l/m 0 min 2 min 0 W/m 16,1 km/h (3 Bft) 95,74 %
09.09.2022 21:46 16,3 C 15,6 C 11,7 C 94 % 1010,0 hPa 0,0 l/m 0 min 2 min 0 W/m 19,3 km/h (3 Bft) 95,65 %
09.09.2022 21:48 16,3 C 15,6 C 11,7 C 94 % 1010,0 hPa 0,0 l/m 0 min 2 min 0 W/m 16,1 km/h (3 Bft) 93,62 %
09.09.2022 21:50 16,2 C 15,0 C 11,7 C 94 % 1010,0 hPa 0,0 l/m 0 min 2 min 0 W/m 22,5 km/h (4 Bft) 97,87 %
09.09.2022 21:52 16,2 C 15,0 C 11,7 C 94 % 1010,0 hPa 0,0 l/m 0 min 2 min 0 W/m 19,3 km/h (3 Bft) 97,87 %
09.09.2022 21:54 16,2 C 15,0 C 11,7 C 95 % 1010,0 hPa 0,0 l/m 0 min 2 min 0 W/m 19,3 km/h (3 Bft) 97,87 %
09.09.2022 21:56 16,2 C 15,0 C 11,1 C 95 % 1010,0 hPa 0,0 l/m 0 min 2 min 0 W/m 12,9 km/h (3 Bft) 97,87 %
09.09.2022 21:58 16,1 C 15,0 C 11,7 C 95 % 1010,0 hPa 0,2 l/m 0 min 2 min 0 W/m 12,9 km/h (3 Bft) 97,83 %
09.09.2022 22:00 16,1 C 15,0 C 11,7 C 95 % 1010,0 hPa 0,0 l/m 0 min 2 min 0 W/m 6,4 km/h (2 Bft) 97,87 %
09.09.2022 22:02 16,1 C 15,0 C 11,1 C 95 % 1010,1 hPa 0,0 l/m 0 min 2 min 0 W/m 12,9 km/h (3 Bft) 95,74 %
09.09.2022 22:04 16,0 C 15,0 C 11,1 C 95 % 1010,1 hPa 0,0 l/m 0 min 2 min 0 W/m 12,9 km/h (3 Bft) 97,87 %
09.09.2022 22:06 15,9 C 15,0 C 11,1 C 95 % 1010,1 hPa 0,2 l/m 0 min 2 min 0 W/m 12,9 km/h (3 Bft) 97,87 %
09.09.2022 22:08 15,8 C 14,4 C 11,1 C 95 % 1010,1 hPa 0,0 l/m 0 min 2 min 0 W/m 6,4 km/h (2 Bft) 97,87 %
09.09.2022 22:10 15,8 C 14,4 C 11,1 C 95 % 1010,1 hPa 0,0 l/m 0 min 2 min 0 W/m 12,9 km/h (3 Bft) 97,83 %
09.09.2022 22:12 15,7 C 14,4 C 11,1 C 95 % 1010,1 hPa 0,0 l/m 0 min 2 min 0 W/m 12,9 km/h (3 Bft) 97,87 %
09.09.2022 22:14 15,7 C 14,4 C 11,1 C 95 % 1010,1 hPa 0,0 l/m 0 min 0 min 0 W/m 6,4 km/h (2 Bft) 97,87 %
09.09.2022 22:16 15,7 C 14,4 C 11,1 C 95 % 1010,3 hPa 0,0 l/m 0 min 0 min 0 W/m 6,4 km/h (2 Bft) 97,87 %
09.09.2022 22:18 15,6 C 14,4 C 11,1 C 95 % 1010,3 hPa 0,0 l/m 0 min 2 min 0 W/m 6,4 km/h (2 Bft) 100,00 %
09.09.2022 22:20 15,6 C 14,4 C 11,1 C 95 % 1010,3 hPa 0,2 l/m 0 min 2 min 0 W/m 6,4 km/h (2 Bft) 97,87 %
09.09.2022 22:22 15,6 C 14,4 C 11,1 C 95 % 1010,2 hPa 0,0 l/m 0 min 2 min 0 W/m 6,4 km/h (2 Bft) 97,83 %
09.09.2022 22:24 15,6 C 14,4 C 11,1 C 95 % 1010,2 hPa 0,0 l/m 0 min 2 min 0 W/m 9,7 km/h (2 Bft) 97,87 %
09.09.2022 22:26 15,5 C 14,4 C 11,1 C 95 % 1010,2 hPa 0,0 l/m 0 min 0 min 0 W/m 9,7 km/h (2 Bft) 97,87 %
09.09.2022 22:28 15,5 C 14,4 C 11,1 C 95 % 1010,2 hPa 0,0 l/m 0 min 0 min 0 W/m 6,4 km/h (2 Bft) 95,74 %
09.09.2022 22:30 15,4 C 14,4 C 11,1 C 95 % 1010,2 hPa 0,0 l/m 0 min 0 min 0 W/m 3,2 km/h (1 Bft) 97,87 %
09.09.2022 22:32 15,4 C 14,4 C 11,1 C 95 % 1010,2 hPa 0,0 l/m 0 min 0 min 0 W/m 6,4 km/h (2 Bft) 97,87 %
09.09.2022 22:34 15,4 C 14,4 C 11,1 C 95 % 1010,2 hPa 0,0 l/m 0 min 0 min 0 W/m 6,4 km/h (2 Bft) 95,65 %
09.09.2022 22:36 15,4 C 14,4 C 11,1 C 95 % 1010,3 hPa 0,0 l/m 0 min 0 min 0 W/m 9,7 km/h (2 Bft) 97,87 %
09.09.2022 22:38 15,4 C 14,4 C 11,1 C 95 % 1010,2 hPa 0,0 l/m 0 min 0 min 0 W/m 16,1 km/h (3 Bft) 97,87 %
09.09.2022 22:40 15,4 C 14,4 C 11,1 C 95 % 1010,3 hPa 0,0 l/m 0 min 0 min 0 W/m 9,7 km/h (2 Bft) 97,87 %
09.09.2022 22:42 15,4 C 14,4 C 11,1 C 95 % 1010,3 hPa 0,0 l/m 0 min 0 min 0 W/m 9,7 km/h (2 Bft) 97,87 %
09.09.2022 22:44 15,4 C 14,4 C 11,1 C 95 % 1010,2 hPa 0,0 l/m 0 min 0 min 0 W/m 3,2 km/h (1 Bft) 95,74 %
09.09.2022 22:46 15,4 C 14,4 C 11,1 C 95 % 1010,2 hPa 0,0 l/m 0 min 0 min 0 W/m 6,4 km/h (2 Bft) 97,83 %
09.09.2022 22:48 15,3 C 14,4 C 11,1 C 95 % 1010,3 hPa 0,0 l/m 0 min 0 min 0 W/m 16,1 km/h (3 Bft) 95,74 %
09.09.2022 22:50 15,3 C 14,4 C 11,1 C 95 % 1010,3 hPa 0,0 l/m 0 min 0 min 0 W/m 9,7 km/h (2 Bft) 97,87 %
09.09.2022 22:52 15,3 C 14,4 C 11,1 C 95 % 1010,3 hPa 0,0 l/m 0 min 0 min 0 W/m 3,2 km/h (1 Bft) 95,74 %
09.09.2022 22:54 15,3 C 14,4 C 11,1 C 95 % 1010,3 hPa 0,0 l/m 0 min 0 min 0 W/m 12,9 km/h (3 Bft) 95,74 %
09.09.2022 22:56 15,3 C 14,4 C 11,1 C 96 % 1010,3 hPa 0,0 l/m 0 min 0 min 0 W/m 6,4 km/h (2 Bft) 97,87 %
09.09.2022 22:58 15,3 C 14,4 C 11,1 C 96 % 1010,3 hPa 0,0 l/m 0 min 0 min 0 W/m 6,4 km/h (2 Bft) 93,48 %
09.09.2022 23:00 15,3 C 14,4 C 11,1 C 96 % 1010,3 hPa 0,0 l/m 0 min 0 min 0 W/m 6,4 km/h (2 Bft) 97,87 %
09.09.2022 23:02 15,3 C 14,4 C 11,1 C 96 % 1010,3 hPa 0,0 l/m 0 min 0 min 0 W/m 9,7 km/h (2 Bft) 93,62 %
09.09.2022 23:04 15,3 C 14,4 C 11,1 C 96 % 1010,3 hPa 0,0 l/m 0 min 0 min 0 W/m 6,4 km/h (2 Bft) 95,74 %
09.09.2022 23:06 15,3 C 14,4 C 11,1 C 96 % 1010,3 hPa 0,0 l/m 0 min 0 min 0 W/m 9,7 km/h (2 Bft) 93,62 %
09.09.2022 23:08 15,3 C 14,4 C 11,1 C 96 % 1010,3 hPa 0,0 l/m 0 min 0 min 0 W/m 16,1 km/h (3 Bft) 93,62 %
09.09.2022 23:10 15,3 C 14,4 C 11,1 C 96 % 1010,3 hPa 0,0 l/m 0 min 0 min 0 W/m 16,1 km/h (3 Bft) 95,65 %
09.09.2022 23:12 15,3 C 14,4 C 11,1 C 96 % 1010,3 hPa 0,0 l/m 0 min 0 min 0 W/m 6,4 km/h (2 Bft) 97,87 %
09.09.2022 23:14 15,3 C 14,4 C 11,1 C 96 % 1010,3 hPa 0,0 l/m 0 min 0 min 0 W/m 9,7 km/h (2 Bft) 97,87 %
09.09.2022 23:16 15,4 C 14,4 C 11,1 C 96 % 1010,3 hPa 0,0 l/m 0 min 0 min 0 W/m 6,4 km/h (2 Bft) 97,87 %
09.09.2022 23:18 15,4 C 14,4 C 11,1 C 96 % 1010,3 hPa 0,0 l/m 0 min 0 min 0 W/m 12,9 km/h (3 Bft) 95,74 %
09.09.2022 23:20 15,4 C 14,4 C 11,1 C 96 % 1010,3 hPa 0,0 l/m 0 min 0 min 0 W/m 6,4 km/h (2 Bft) 95,74 %
09.09.2022 23:22 15,4 C 14,4 C 11,1 C 96 % 1010,2 hPa 0,0 l/m 0 min 0 min 0 W/m 16,1 km/h (3 Bft) 97,83 %
09.09.2022 23:24 15,4 C 14,4 C 11,1 C 96 % 1010,2 hPa 0,0 l/m 0 min 0 min 0 W/m 3,2 km/h (1 Bft) 97,87 %
09.09.2022 23:26 15,4 C 14,4 C 11,1 C 96 % 1010,3 hPa 0,0 l/m 0 min 0 min 0 W/m 6,4 km/h (2 Bft) 95,74 %
09.09.2022 23:28 15,4 C 14,4 C 11,1 C 96 % 1010,2 hPa 0,0 l/m 0 min 0 min 0 W/m 3,2 km/h (1 Bft) 97,87 %
09.09.2022 23:30 15,4 C 14,4 C 11,1 C 96 % 1010,3 hPa 0,0 l/m 0 min 0 min 0 W/m 12,9 km/h (3 Bft) 97,87 %
09.09.2022 23:32 15,4 C 14,4 C 11,1 C 96 % 1010,2 hPa 0,0 l/m 0 min 0 min 0 W/m 12,9 km/h (3 Bft) 97,87 %
09.09.2022 23:34 15,4 C 14,4 C 11,1 C 96 % 1010,2 hPa 0,0 l/m 0 min 0 min 0 W/m 19,3 km/h (3 Bft) 97,83 %
09.09.2022 23:36 15,4 C 14,4 C 11,1 C 96 % 1010,2 hPa 0,0 l/m 0 min 0 min 0 W/m 12,9 km/h (3 Bft) 100,00 %
09.09.2022 23:38 15,4 C 14,4 C 11,1 C 96 % 1010,2 hPa 0,0 l/m 0 min 0 min 0 W/m 19,3 km/h (3 Bft) 100,00 %
09.09.2022 23:40 15,4 C 14,4 C 11,1 C 96 % 1010,3 hPa 0,0 l/m 0 min 0 min 0 W/m 12,9 km/h (3 Bft) 100,00 %
09.09.2022 23:42 15,4 C 14,4 C 11,1 C 96 % 1010,2 hPa 0,0 l/m 0 min 0 min 0 W/m 9,7 km/h (2 Bft) 97,87 %
09.09.2022 23:44 15,3 C 14,4 C 11,1 C 96 % 1010,2 hPa 0,0 l/m 0 min 0 min 0 W/m 19,3 km/h (3 Bft) 100,00 %
09.09.2022 23:46 15,3 C 14,4 C 11,1 C 96 % 1010,3 hPa 0,0 l/m 0 min 0 min 0 W/m 9,7 km/h (2 Bft) 100,00 %
09.09.2022 23:48 15,3 C 14,4 C 11,1 C 96 % 1010,3 hPa 0,0 l/m 0 min 0 min 0 W/m 9,7 km/h (2 Bft) 100,00 %
09.09.2022 23:50 15,3 C 14,4 C 11,1 C 96 % 1010,3 hPa 0,0 l/m 0 min 0 min 0 W/m 12,9 km/h (3 Bft) 97,87 %
09.09.2022 23:52 15,3 C 14,4 C 11,1 C 96 % 1010,3 hPa 0,0 l/m 0 min 0 min 0 W/m 9,7 km/h (2 Bft) 100,00 %
09.09.2022 23:54 15,3 C 14,4 C 11,1 C 96 % 1010,3 hPa 0,0 l/m 0 min 0 min 0 W/m 0,0 km/h (0 Bft) 100,00 %
09.09.2022 23:56 15,3 C 14,4 C 11,1 C 96 % 1010,3 hPa 0,0 l/m 0 min 0 min 0 W/m 3,2 km/h (1 Bft) 100,00 %
09.09.2022 23:58 15,2 C 14,4 C 11,1 C 96 % 1010,3 hPa 0,0 l/m 0 min 0 min 0 W/m 12,9 km/h (3 Bft) 100,00 %
_ Min-Zeit 03:24 01:12 03:20 13:18 05:28 - - - - 00:00 20:36
Minimum _ 14,3 C 13,3 C 10,0 C 70 % 1008,2 hPa - - - - 0,0 km/h (0 Bft) 45,95 %
_ Max-Zeit 13:38 11:42 11:50 05:10 22:16 00:14 10:08 00:12 11:48 13:18 00:34
Maximum _ 20,4 C 22,8 C 17,2 C 98 % 1010,3 hPa 1,6 l/m 2 min 2 min 874 W/m 45,1 km/h
S-SW (6 Bft)
100,00 %
Durchschnitt _ 16,5 C 16,0 C 12,1 C 91 % 1008,9 hPa #13,0 l/m #3:42 h #3:14 h 175 W/m 11,5 km/h (2 Bft) 97,44 %
© 2022 W. Hausmann